| time (UTC) | temp F | wind direction | speed knots | gust knots | rain 1hr in | rain 24hr in | rain mn in | humidity % | barometer mb |
| 20260508014004 | 46 | 176 | 4.3 | 11.3 | 0.00 | 0.00 | 0.00 | 84 | 1009.4 |
| 20260508013803 | 46 | 173 | 4.3 | 11.3 | 0.00 | 0.00 | 0.00 | 84 | 1009.5 |
| 20260508013603 | 46 | 170 | 4.3 | 10.4 | 0.00 | 0.00 | 0.00 | 84 | 1009.5 |
| 20260508013404 | 47 | 170 | 5.2 | 10.4 | 0.00 | 0.00 | 0.00 | 84 | 1009.5 |
| 20260508013203 | 47 | 166 | 5.2 | 10.4 | 0.00 | 0.00 | 0.00 | 84 | 1009.4 |
| 20260508013003 | 47 | 168 | 4.3 | 10.4 | 0.00 | 0.00 | 0.00 | 84 | 1009.4 |
| 20260508012804 | 47 | 170 | 5.2 | 10.4 | 0.00 | 0.00 | 0.00 | 84 | 1009.4 |
| 20260508012603 | 47 | 172 | 5.2 | 13.9 | 0.00 | 0.00 | 0.00 | 84 | 1009.4 |
| 20260508012404 | 47 | 171 | 5.2 | 13.9 | 0.00 | 0.00 | 0.00 | 83 | 1009.4 |
| 20260508012203 | 47 | 174 | 5.2 | 13.9 | 0.00 | 0.00 | 0.00 | 83 | 1009.3 |
| 20260508012003 | 47 | 172 | 5.2 | 13.9 | 0.00 | 0.00 | 0.00 | 83 | 1009.4 |
| 20260508011804 | 47 | 171 | 5.2 | 13.9 | 0.00 | 0.00 | 0.00 | 84 | 1009.4 |
| 20260508011605 | 47 | 168 | 5.2 | 11.3 | 0.00 | 0.00 | 0.00 | 83 | 1009.3 |
| 20260508011403 | 47 | 169 | 5.2 | 10.4 | 0.00 | 0.00 | 0.00 | 83 | 1009.4 |
| 20260508011203 | 47 | 168 | 5.2 | 10.4 | 0.00 | 0.00 | 0.00 | 83 | 1009.4 |
| 20260508011004 | 47 | 167 | 5.2 | 14.8 | 0.00 | 0.00 | 0.00 | 83 | 1009.4 |
| 20260508010803 | 47 | 167 | 5.2 | 14.8 | 0.00 | 0.00 | 0.00 | 83 | 1009.3 |
| 20260508010604 | 47 | 166 | 6.1 | 14.8 | 0.00 | 0.00 | 0.00 | 83 | 1009.2 |
| 20260508010403 | 47 | 166 | 6.1 | 14.8 | 0.00 | 0.00 | 0.00 | 83 | 1009.2 |
| 20260508010204 | 47 | 168 | 6.1 | 14.8 | 0.00 | 0.00 | 0.00 | 83 | 1009.2 |
| 20260508010005 | 47 | 171 | 6.1 | 14.8 | 0.00 | 0.00 | 0.00 | 83 | 1009.3 |
| 20260508005803 | 47 | 172 | 6.1 | 12.2 | 0.00 | 0.00 | 0.00 | 83 | 1009.4 |
| 20260508005603 | 47 | 175 | 5.2 | 12.2 | 0.00 | 0.00 | 0.00 | 83 | 1009.3 |
| 20260508005403 | 47 | 178 | 5.2 | 12.2 | 0.00 | 0.00 | 0.00 | 83 | 1009.4 |
| 20260508005204 | 47 | 180 | 5.2 | 12.2 | 0.00 | 0.00 | 0.00 | 83 | 1009.4 |
| 20260508005003 | 47 | 179 | 5.2 | 10.4 | 0.00 | 0.00 | 0.00 | 83 | 1009.5 |
| 20260508004803 | 47 | 178 | 5.2 | 10.4 | 0.00 | 0.00 | 0.00 | 83 | 1009.4 |
| 20260508004604 | 47 | 177 | 5.2 | 10.4 | 0.00 | 0.00 | 0.00 | 82 | 1009.4 |
| 20260508004403 | 47 | 173 | 4.3 | 10.4 | 0.00 | 0.00 | 0.00 | 82 | 1009.4 |
| 20260508004204 | 47 | 169 | 4.3 | 9.6 | 0.00 | 0.00 | 0.00 | 82 | 1009.4 |
| 20260508004003 | 48 | 168 | 4.3 | 9.6 | 0.00 | 0.00 | 0.00 | 82 | 1009.3 |
| 20260508003804 | 48 | 170 | 4.3 | 13.9 | 0.00 | 0.00 | 0.00 | 82 | 1009.3 |
| 20260508003603 | 48 | 172 | 4.3 | 13.9 | 0.00 | 0.00 | 0.00 | 82 | 1009.4 |
| 20260508003403 | 48 | 178 | 4.3 | 13.9 | 0.00 | 0.00 | 0.00 | 82 | 1009.3 |
| 20260508003204 | 48 | 179 | 4.3 | 13.9 | 0.00 | 0.00 | 0.00 | 82 | 1009.4 |
| 20260508003005 | 48 | 181 | 4.3 | 13.9 | 0.00 | 0.00 | 0.00 | 82 | 1009.4 |
| 20260508002804 | 48 | 176 | 4.3 | 11.3 | 0.00 | 0.00 | 0.00 | 82 | 1009.4 |
| 20260508002603 | 48 | 178 | 4.3 | 11.3 | 0.00 | 0.00 | 0.00 | 82 | 1009.5 |
| 20260508002403 | 48 | 178 | 5.2 | 11.3 | 0.00 | 0.00 | 0.00 | 82 | 1009.5 |
| 20260508002203 | 48 | 181 | 5.2 | 10.4 | 0.00 | 0.00 | 0.00 | 82 | 1009.5 |
| 20260508002005 | 48 | 182 | 5.2 | 10.4 | 0.00 | 0.00 | 0.00 | 82 | 1009.5 |
| 20260508001803 | 48 | 187 | 4.3 | 10.4 | 0.00 | 0.00 | 0.00 | 81 | 1009.6 |
| 20260508001603 | 48 | 187 | 4.3 | 10.4 | 0.00 | 0.00 | 0.00 | 82 | 1009.7 |
| 20260508001405 | 48 | 188 | 4.3 | 10.4 | 0.00 | 0.00 | 0.00 | 82 | 1009.6 |
| 20260508001204 | 48 | 188 | 4.3 | 11.3 | 0.00 | 0.00 | 0.00 | 82 | 1009.7 |
| 20260508001004 | 48 | 189 | 4.3 | 11.3 | 0.00 | 0.00 | 0.00 | 82 | 1009.6 |
| 20260508000803 | 48 | 189 | 4.3 | 11.3 | 0.00 | 0.00 | 0.00 | 82 | 1009.6 |
| 20260508000604 | 48 | 190 | 4.3 | 11.3 | 0.00 | 0.00 | 0.00 | 82 | 1009.5 |
| 20260508000404 | 48 | 190 | 5.2 | 11.3 | 0.00 | 0.00 | 0.00 | 82 | 1009.7 |
| 20260508000204 | 48 | 188 | 5.2 | 10.4 | 0.00 | 0.00 | 0.00 | 82 | 1009.7 |
| 20260508000003 | 48 | 184 | 5.2 | 10.4 | 0.00 | 0.00 | 0.00 | 82 | 1009.6 |
| 20260507235803 | 48 | 178 | 5.2 | 11.3 | 0.00 | 0.00 | 0.00 | 83 | 1009.6 |
| 20260507235605 | 48 | 171 | 5.2 | 11.3 | 0.00 | 0.00 | 0.00 | 83 | 1009.5 |
| 20260507235405 | 47 | 166 | 4.3 | 11.3 | 0.00 | 0.00 | 0.00 | 83 | 1009.5 |
| 20260507235203 | 47 | 165 | 4.3 | 11.3 | 0.00 | 0.00 | 0.00 | 84 | 1009.5 |
| 20260507235003 | 47 | 165 | 3.5 | 11.3 | 0.00 | 0.00 | 0.00 | 84 | 1009.5 |
| 20260507234803 | 47 | 170 | 3.5 | 11.3 | 0.00 | 0.00 | 0.00 | 83 | 1009.5 |
| 20260507234603 | 47 | 173 | 3.5 | 11.3 | 0.00 | 0.00 | 0.00 | 84 | 1009.5 |
| 20260507234403 | 47 | 170 | 3.5 | 11.3 | 0.00 | 0.00 | 0.00 | 84 | 1009.5 |
| 20260507234203 | 47 | 166 | 3.5 | 11.3 | 0.00 | 0.00 | 0.00 | 84 | 1009.4 |
| 20260507234005 | 47 | 162 | 3.5 | 8.7 | 0.00 | 0.00 | 0.00 | 84 | 1009.6 |
| 20260507233804 | 47 | 158 | 3.5 | 7.0 | 0.00 | 0.00 | 0.00 | 84 | 1009.5 |
| 20260507233603 | 46 | 151 | 3.5 | 8.7 | 0.00 | 0.00 | 0.00 | 84 | 1009.6 |
| 20260507233403 | 46 | 149 | 2.6 | 8.7 | 0.00 | 0.00 | 0.00 | 83 | 1009.6 |
| 20260507233204 | 46 | 149 | 2.6 | 8.7 | 0.00 | 0.00 | 0.00 | 83 | 1009.5 |
| 20260507233005 | 46 | 152 | 2.6 | 8.7 | 0.00 | 0.00 | 0.00 | 83 | 1009.6 |
| 20260507232803 | 46 | 150 | 1.7 | 8.7 | 0.00 | 0.00 | 0.00 | 83 | 1009.6 |
| 20260507232603 | 46 | 159 | 1.7 | 5.2 | 0.00 | 0.00 | 0.00 | 82 | 1009.5 |
| 20260507232403 | 47 | 163 | 1.7 | 5.2 | 0.00 | 0.00 | 0.00 | 82 | 1009.6 |
| 20260507232204 | 47 | 172 | 0.9 | 5.2 | 0.00 | 0.00 | 0.00 | 82 | 1009.6 |
| 20260507232004 | 47 | 171 | 1.7 | 6.1 | 0.00 | 0.00 | 0.00 | 82 | 1009.7 |
| 20260507231804 | 47 | 173 | 1.7 | 6.1 | 0.00 | 0.00 | 0.00 | 82 | 1009.7 |
| 20260507231603 | 47 | 173 | 1.7 | 6.1 | 0.00 | 0.00 | 0.00 | 82 | 1009.7 |
| 20260507231403 | 47 | 173 | 1.7 | 6.1 | 0.00 | 0.00 | 0.00 | 82 | 1009.7 |
| 20260507231203 | 47 | 167 | 1.7 | 6.1 | 0.00 | 0.00 | 0.00 | 82 | 1009.8 |
| 20260507231004 | 47 | 169 | 1.7 | 5.2 | 0.00 | 0.00 | 0.00 | 82 | 1009.8 |
| 20260507230804 | 48 | 171 | 1.7 | 5.2 | 0.00 | 0.00 | 0.00 | 82 | 1009.8 |
| 20260507230605 | 48 | 174 | 1.7 | 8.7 | 0.00 | 0.00 | 0.00 | 82 | 1009.7 |
| 20260507230404 | 48 | 183 | 2.6 | 8.7 | 0.00 | 0.00 | 0.00 | 82 | 1009.7 |
| 20260507230203 | 48 | 194 | 2.6 | 8.7 | 0.00 | 0.00 | 0.00 | 82 | 1009.7 |
| 20260507230004 | 48 | 197 | 2.6 | 8.7 | 0.00 | 0.00 | 0.00 | 83 | 1009.8 |
| 20260507225803 | 48 | 199 | 2.6 | 8.7 | 0.00 | 0.00 | 0.00 | 83 | 1009.7 |
| 20260507225603 | 47 | 203 | 1.7 | 7.0 | 0.00 | 0.00 | 0.00 | 83 | 1009.8 |
| 20260507225403 | 47 | 199 | 2.6 | 9.6 | 0.00 | 0.00 | 0.00 | 83 | 1009.7 |
| 20260507225203 | 47 | 185 | 2.6 | 9.6 | 0.00 | 0.00 | 0.00 | 84 | 1009.7 |
| 20260507225004 | 47 | 174 | 2.6 | 9.6 | 0.00 | 0.00 | 0.00 | 84 | 1009.7 |
| 20260507224803 | 47 | 170 | 2.6 | 9.6 | 0.00 | 0.00 | 0.00 | 84 | 1009.7 |
| 20260507224603 | 47 | 169 | 3.5 | 9.6 | 0.00 | 0.00 | 0.00 | 84 | 1009.6 |
| 20260507224405 | 47 | 161 | 3.5 | 7.0 | 0.00 | 0.00 | 0.00 | 84 | 1009.6 |
| 20260507224203 | 47 | 162 | 3.5 | 7.0 | 0.00 | 0.00 | 0.00 | 84 | 1009.6 |
| 20260507224005 | 47 | 168 | 2.6 | 7.0 | 0.00 | 0.00 | 0.00 | 84 | 1009.5 |
| 20260507223803 | 46 | 167 | 3.5 | 7.0 | 0.00 | 0.00 | 0.00 | 84 | 1009.6 |
| 20260507223603 | 46 | 162 | 2.6 | 7.0 | 0.00 | 0.00 | 0.00 | 84 | 1009.5 |
| 20260507223403 | 46 | 161 | 2.6 | 7.0 | 0.00 | 0.00 | 0.00 | 84 | 1009.5 |
| 20260507223203 | 47 | 160 | 2.6 | 7.0 | 0.00 | 0.00 | 0.00 | 84 | 1009.6 |
| 20260507223004 | 47 | 161 | 2.6 | 6.1 | 0.00 | 0.00 | 0.00 | 84 | 1009.6 |
| 20260507222803 | 47 | 167 | 2.6 | 6.1 | 0.00 | 0.00 | 0.00 | 84 | 1009.6 |
| 20260507222604 | 47 | 176 | 2.6 | 6.1 | 0.00 | 0.00 | 0.00 | 84 | 1009.6 |
| 20260507222403 | 47 | 186 | 1.7 | 6.1 | 0.00 | 0.00 | 0.00 | 84 | 1009.7 |
| 20260507222203 | 47 | 193 | 2.6 | 9.6 | 0.00 | 0.00 | 0.00 | 85 | 1009.8 |
| 20260507222004 | 47 | 195 | 2.6 | 9.6 | 0.00 | 0.00 | 0.00 | 84 | 1009.8 |
| 20260507221804 | 47 | 197 | 2.6 | 9.6 | 0.00 | 0.00 | 0.00 | 85 | 1009.9 |
| 20260507221603 | 47 | 197 | 1.7 | 9.6 | 0.00 | 0.00 | 0.00 | 85 | 1009.8 |
| 20260507221404 | 47 | 197 | 1.7 | 9.6 | 0.00 | 0.00 | 0.00 | 85 | 1009.8 |
| 20260507221203 | 47 | 198 | 1.7 | 6.1 | 0.00 | 0.00 | 0.00 | 85 | 1009.8 |
| 20260507221004 | 47 | 198 | 1.7 | 6.1 | 0.00 | 0.00 | 0.00 | 85 | 1009.9 |
| 20260507220805 | 47 | 198 | 2.6 | 7.0 | 0.00 | 0.00 | 0.00 | 85 | 1009.8 |
| 20260507220603 | 47 | 198 | 2.6 | 7.0 | 0.00 | 0.00 | 0.00 | 85 | 1009.8 |
| 20260507220403 | 47 | 196 | 2.6 | 7.0 | 0.00 | 0.00 | 0.00 | 85 | 1009.9 |
| 20260507220204 | 47 | 195 | 2.6 | 7.0 | 0.00 | 0.00 | 0.00 | 86 | 1009.8 |
| 20260507220003 | 47 | 193 | 2.6 | 7.0 | 0.00 | 0.00 | 0.00 | 86 | 1009.9 |
| 20260507215803 | 47 | 191 | 1.7 | 5.2 | 0.00 | 0.00 | 0.00 | 86 | 1009.8 |
| 20260507215604 | 47 | 191 | 1.7 | 6.1 | 0.00 | 0.00 | 0.00 | 86 | 1009.9 |
| 20260507215403 | 46 | 187 | 1.7 | 6.1 | 0.00 | 0.00 | 0.00 | 86 | 1009.9 |
| 20260507215204 | 46 | 184 | 2.6 | 9.6 | 0.00 | 0.00 | 0.00 | 86 | 1009.8 |
| 20260507215004 | 46 | 186 | 2.6 | 9.6 | 0.00 | 0.00 | 0.00 | 86 | 1009.9 |
| 20260507214804 | 46 | 184 | 2.6 | 9.6 | 0.00 | 0.00 | 0.00 | 87 | 1009.8 |
| 20260507214605 | 46 | 181 | 2.6 | 9.6 | 0.00 | 0.00 | 0.00 | 87 | 1009.7 |
| 20260507214403 | 46 | 180 | 2.6 | 9.6 | 0.00 | 0.00 | 0.00 | 87 | 1009.8 |
| 20260507214204 | 46 | 181 | 1.7 | 8.7 | 0.00 | 0.00 | 0.00 | 87 | 1009.8 |
| 20260507214004 | 46 | 173 | 0.9 | 8.7 | 0.00 | 0.00 | 0.00 | 86 | 1009.8 |
| 20260507213804 | 46 | 166 | 0.9 | 4.3 | 0.00 | 0.00 | 0.00 | 86 | 1009.8 |
| 20260507213603 | 46 | 166 | 0.0 | 4.3 | 0.00 | 0.00 | 0.00 | 86 | 1009.8 |
| 20260507213404 | 46 | 166 | 0.0 | 3.5 | 0.00 | 0.00 | 0.00 | 86 | 1009.8 |
| 20260507213204 | 46 | 0 | 0.0 | 0.0 | 0.00 | 0.00 | 0.00 | 86 | 1009.8 |
| 20260507213003 | 46 | 0 | 0.0 | 0.0 | 0.00 | 0.00 | 0.00 | 86 | 1009.8 |
| 20260507212803 | 46 | 0 | 0.0 | 0.0 | 0.00 | 0.00 | 0.00 | 86 | 1009.8 |
| 20260507212604 | 46 | 0 | 0.0 | 0.0 | 0.00 | 0.00 | 0.00 | 86 | 1009.8 |
| 20260507212403 | 46 | 0 | 0.0 | 0.0 | 0.00 | 0.00 | 0.00 | 86 | 1009.9 |
| 20260507212203 | 46 | 0 | 0.0 | 0.0 | 0.00 | 0.00 | 0.00 | 86 | 1009.9 |
| 20260507212003 | 46 | 0 | 0.0 | 0.0 | 0.00 | 0.00 | 0.00 | 85 | 1009.9 |
| 20260507211804 | 46 | 0 | 0.0 | 0.0 | 0.00 | 0.00 | 0.00 | 85 | 1009.8 |
| 20260507211604 | 46 | 163 | 0.0 | 1.7 | 0.00 | 0.00 | 0.00 | 85 | 1009.8 |
| 20260507211403 | 46 | 163 | 0.0 | 1.7 | 0.00 | 0.00 | 0.00 | 85 | 1009.8 |
| 20260507211203 | 46 | 163 | 0.0 | 1.7 | 0.00 | 0.00 | 0.00 | 85 | 1009.8 |
| 20260507211003 | 46 | 162 | 0.9 | 4.3 | 0.00 | 0.00 | 0.00 | 85 | 1009.8 |
| 20260507210805 | 46 | 162 | 0.9 | 4.3 | 0.00 | 0.00 | 0.00 | 85 | 1009.8 |
| 20260507210605 | 46 | 162 | 1.7 | 5.2 | 0.00 | 0.00 | 0.00 | 85 | 1009.8 |
| 20260507210403 | 46 | 165 | 1.7 | 5.2 | 0.00 | 0.00 | 0.00 | 85 | 1009.7 |
| 20260507210204 | 46 | 167 | 2.6 | 5.2 | 0.00 | 0.00 | 0.00 | 85 | 1009.6 |
| 20260507210003 | 47 | 169 | 2.6 | 5.2 | 0.00 | 0.00 | 0.00 | 85 | 1009.7 |
| 20260507205804 | 47 | 171 | 2.6 | 5.2 | 0.00 | 0.00 | 0.00 | 85 | 1009.6 |
| 20260507205603 | 47 | 175 | 2.6 | 5.2 | 0.00 | 0.00 | 0.00 | 85 | 1009.7 |
| 20260507205404 | 47 | 175 | 1.7 | 4.3 | 0.00 | 0.00 | 0.00 | 85 | 1009.8 |
| 20260507205203 | 47 | 175 | 1.7 | 4.3 | 0.00 | 0.00 | 0.00 | 85 | 1009.8 |
| 20260507205004 | 47 | 175 | 1.7 | 4.3 | 0.00 | 0.00 | 0.00 | 85 | 1009.9 |
| 20260507204803 | 47 | 175 | 0.9 | 3.5 | 0.00 | 0.00 | 0.00 | 85 | 1009.9 |
| 20260507204605 | 47 | 175 | 0.9 | 4.3 | 0.00 | 0.00 | 0.00 | 85 | 1009.9 |
| 20260507204403 | 47 | 175 | 1.7 | 4.3 | 0.00 | 0.00 | 0.00 | 85 | 1009.9 |
| 20260507204203 | 47 | 175 | 1.7 | 4.3 | 0.00 | 0.00 | 0.00 | 85 | 1009.8 |
| 20260507204004 | 47 | 175 | 1.7 | 4.3 | 0.00 | 0.00 | 0.00 | 85 | 1009.8 |
| 20260507203804 | 47 | 175 | 1.7 | 4.3 | 0.00 | 0.00 | 0.00 | 85 | 1009.8 |
| 20260507203604 | 47 | 175 | 1.7 | 3.5 | 0.00 | 0.00 | 0.00 | 85 | 1009.8 |
| 20260507203403 | 47 | 175 | 0.9 | 3.5 | 0.00 | 0.00 | 0.00 | 85 | 1009.8 |
| 20260507203203 | 47 | 174 | 0.9 | 3.5 | 0.00 | 0.00 | 0.00 | 84 | 1009.8 |
| 20260507203003 | 47 | 174 | 0.9 | 3.5 | 0.00 | 0.00 | 0.00 | 84 | 1009.8 |
| 20260507202803 | 47 | 174 | 1.7 | 5.2 | 0.00 | 0.00 | 0.00 | 84 | 1009.8 |
| 20260507202605 | 47 | 173 | 1.7 | 5.2 | 0.00 | 0.00 | 0.00 | 84 | 1009.7 |
| 20260507202404 | 47 | 170 | 1.7 | 6.1 | 0.00 | 0.00 | 0.00 | 84 | 1009.7 |
| 20260507202203 | 47 | 167 | 1.7 | 6.1 | 0.00 | 0.00 | 0.00 | 84 | 1009.7 |
| 20260507202003 | 47 | 163 | 1.7 | 6.1 | 0.00 | 0.00 | 0.00 | 84 | 1009.7 |
| 20260507201803 | 48 | 157 | 1.7 | 6.1 | 0.00 | 0.00 | 0.00 | 84 | 1009.7 |
| 20260507201604 | 48 | 153 | 1.7 | 6.1 | 0.00 | 0.00 | 0.00 | 84 | 1009.7 |
| 20260507201403 | 48 | 148 | 2.6 | 6.1 | 0.00 | 0.00 | 0.00 | 84 | 1009.7 |
| 20260507201205 | 48 | 147 | 2.6 | 6.1 | 0.00 | 0.00 | 0.00 | 84 | 1009.6 |
| 20260507201004 | 48 | 146 | 2.6 | 6.1 | 0.00 | 0.00 | 0.00 | 84 | 1009.7 |
| 20260507200803 | 48 | 145 | 3.5 | 8.7 | 0.00 | 0.00 | 0.00 | 84 | 1009.7 |
| 20260507200603 | 48 | 146 | 3.5 | 8.7 | 0.00 | 0.00 | 0.00 | 84 | 1009.6 |
| 20260507200404 | 48 | 147 | 3.5 | 8.7 | 0.00 | 0.00 | 0.00 | 84 | 1009.6 |
| 20260507200203 | 48 | 149 | 3.5 | 8.7 | 0.00 | 0.00 | 0.00 | 84 | 1009.6 |
| 20260507200003 | 48 | 152 | 3.5 | 8.7 | 0.00 | 0.00 | 0.00 | 84 | 1009.7 |
| 20260507195803 | 48 | 157 | 3.5 | 6.1 | 0.00 | 0.00 | 0.00 | 83 | 1009.7 |
| 20260507195604 | 48 | 160 | 2.6 | 7.0 | 0.00 | 0.00 | 0.00 | 83 | 1009.6 |
| 20260507195403 | 48 | 163 | 2.6 | 7.0 | 0.00 | 0.00 | 0.00 | 83 | 1009.6 |
| 20260507195203 | 48 | 168 | 2.6 | 7.0 | 0.00 | 0.00 | 0.00 | 83 | 1009.6 |
| 20260507195003 | 49 | 167 | 2.6 | 7.0 | 0.00 | 0.00 | 0.00 | 83 | 1009.6 |
| 20260507194803 | 49 | 162 | 2.6 | 6.1 | 0.00 | 0.00 | 0.00 | 83 | 1009.6 |
| 20260507194604 | 49 | 157 | 2.6 | 7.0 | 0.00 | 0.00 | 0.00 | 83 | 1009.6 |
| 20260507194403 | 49 | 152 | 2.6 | 7.0 | 0.00 | 0.00 | 0.00 | 83 | 1009.6 |
| 20260507194203 | 49 | 148 | 3.5 | 7.0 | 0.00 | 0.00 | 0.00 | 83 | 1009.6 |
| 20260507194003 | 49 | 146 | 3.5 | 8.7 | 0.00 | 0.00 | 0.00 | 83 | 1009.5 |
| 20260507193804 | 49 | 146 | 3.5 | 8.7 | 0.00 | 0.00 | 0.00 | 83 | 1009.6 |
| 20260507193603 | 49 | 146 | 3.5 | 8.7 | 0.00 | 0.00 | 0.00 | 83 | 1009.6 |
| 20260507193403 | 49 | 145 | 4.3 | 8.7 | 0.00 | 0.00 | 0.00 | 83 | 1009.5 |
| 20260507193204 | 49 | 146 | 4.3 | 8.7 | 0.00 | 0.00 | 0.00 | 83 | 1009.6 |
| 20260507193003 | 49 | 146 | 3.5 | 8.7 | 0.00 | 0.00 | 0.00 | 82 | 1009.6 |
| 20260507192803 | 49 | 146 | 3.5 | 8.7 | 0.00 | 0.00 | 0.00 | 82 | 1009.6 |
| 20260507192603 | 49 | 146 | 3.5 | 8.7 | 0.00 | 0.00 | 0.00 | 82 | 1009.6 |
| 20260507192404 | 49 | 146 | 3.5 | 8.7 | 0.00 | 0.00 | 0.00 | 82 | 1009.5 |
| 20260507192203 | 49 | 145 | 3.5 | 8.7 | 0.00 | 0.00 | 0.00 | 82 | 1009.5 |
| 20260507192004 | 49 | 145 | 3.5 | 8.7 | 0.00 | 0.00 | 0.00 | 82 | 1009.5 |
| 20260507191803 | 49 | 145 | 3.5 | 8.7 | 0.00 | 0.00 | 0.00 | 82 | 1009.6 |
| 20260507191603 | 50 | 146 | 3.5 | 6.1 | 0.00 | 0.00 | 0.00 | 82 | 1009.6 |
| 20260507191403 | 50 | 146 | 3.5 | 9.6 | 0.00 | 0.00 | 0.00 | 82 | 1009.5 |
| 20260507191203 | 50 | 146 | 3.5 | 9.6 | 0.00 | 0.00 | 0.00 | 82 | 1009.5 |
| 20260507191004 | 50 | 145 | 4.3 | 9.6 | 0.00 | 0.00 | 0.00 | 82 | 1009.6 |
| 20260507190803 | 50 | 147 | 4.3 | 9.6 | 0.00 | 0.00 | 0.00 | 82 | 1009.6 |
| 20260507190604 | 50 | 147 | 4.3 | 9.6 | 0.00 | 0.00 | 0.00 | 82 | 1009.6 |
| 20260507190403 | 50 | 147 | 3.5 | 9.6 | 0.00 | 0.00 | 0.00 | 82 | 1009.6 |
| 20260507190203 | 50 | 146 | 4.3 | 9.6 | 0.00 | 0.00 | 0.00 | 82 | 1009.6 |
| 20260507190004 | 50 | 148 | 3.5 | 9.6 | 0.00 | 0.00 | 0.00 | 82 | 1009.5 |
| 20260507185804 | 50 | 147 | 3.5 | 9.6 | 0.00 | 0.00 | 0.00 | 82 | 1009.5 |
| 20260507185604 | 50 | 147 | 4.3 | 10.4 | 0.00 | 0.00 | 0.00 | 82 | 1009.5 |
| 20260507185404 | 50 | 147 | 4.3 | 10.4 | 0.00 | 0.00 | 0.00 | 82 | 1009.6 |
| 20260507185203 | 50 | 147 | 5.2 | 10.4 | 0.00 | 0.00 | 0.00 | 82 | 1009.6 |
| 20260507185004 | 50 | 148 | 5.2 | 10.4 | 0.00 | 0.00 | 0.00 | 82 | 1009.6 |
| 20260507184803 | 50 | 148 | 5.2 | 10.4 | 0.00 | 0.00 | 0.00 | 82 | 1009.5 |
| 20260507184603 | 50 | 147 | 4.3 | 10.4 | 0.00 | 0.00 | 0.00 | 82 | 1009.5 |
| 20260507184404 | 51 | 146 | 4.3 | 11.3 | 0.00 | 0.00 | 0.00 | 82 | 1009.4 |
| 20260507184203 | 51 | 151 | 3.5 | 11.3 | 0.00 | 0.00 | 0.00 | 82 | 1009.5 |
| 20260507184003 | 51 | 154 | 2.6 | 11.3 | 0.00 | 0.00 | 0.00 | 82 | 1009.6 |
| 20260507183804 | 51 | 156 | 2.6 | 11.3 | 0.00 | 0.00 | 0.00 | 81 | 1009.6 |
| 20260507183603 | 51 | 157 | 2.6 | 11.3 | 0.00 | 0.00 | 0.00 | 81 | 1009.7 |
| 20260507183403 | 51 | 156 | 2.6 | 8.7 | 0.00 | 0.00 | 0.00 | 81 | 1009.6 |
| 20260507183204 | 51 | 148 | 2.6 | 8.7 | 0.00 | 0.00 | 0.00 | 81 | 1009.6 |
| 20260507183003 | 51 | 147 | 3.5 | 8.7 | 0.00 | 0.00 | 0.00 | 81 | 1009.7 |
| 20260507182804 | 51 | 144 | 3.5 | 8.7 | 0.00 | 0.00 | 0.00 | 81 | 1009.6 |
| 20260507182603 | 51 | 145 | 3.5 | 9.6 | 0.00 | 0.00 | 0.00 | 81 | 1009.6 |
| 20260507182403 | 51 | 149 | 3.5 | 9.6 | 0.00 | 0.00 | 0.00 | 81 | 1009.6 |
| 20260507182203 | 51 | 148 | 4.3 | 9.6 | 0.00 | 0.00 | 0.00 | 81 | 1009.5 |
| 20260507182004 | 51 | 146 | 4.3 | 9.6 | 0.00 | 0.00 | 0.00 | 81 | 1009.6 |
| 20260507181803 | 51 | 147 | 4.3 | 11.3 | 0.00 | 0.00 | 0.00 | 81 | 1009.6 |
| 20260507181604 | 51 | 146 | 4.3 | 11.3 | 0.00 | 0.00 | 0.00 | 81 | 1009.6 |
| 20260507181403 | 51 | 145 | 5.2 | 11.3 | 0.00 | 0.00 | 0.00 | 81 | 1009.6 |
| 20260507181205 | 51 | 147 | 4.3 | 11.3 | 0.00 | 0.00 | 0.00 | 81 | 1009.6 |
| 20260507181004 | 51 | 148 | 4.3 | 11.3 | 0.00 | 0.00 | 0.00 | 81 | 1009.6 |
| 20260507180803 | 51 | 149 | 4.3 | 10.4 | 0.00 | 0.00 | 0.00 | 81 | 1009.5 |
| 20260507180605 | 51 | 149 | 4.3 | 10.4 | 0.00 | 0.00 | 0.00 | 81 | 1009.5 |
| 20260507180403 | 50 | 149 | 5.2 | 10.4 | 0.00 | 0.00 | 0.00 | 81 | 1009.5 |
| 20260507180203 | 50 | 148 | 5.2 | 10.4 | 0.00 | 0.00 | 0.00 | 81 | 1009.6 |
| 20260507180004 | 50 | 148 | 6.1 | 10.4 | 0.00 | 0.00 | 0.00 | 81 | 1009.6 |
| 20260507175804 | 51 | 147 | 6.1 | 11.3 | 0.00 | 0.00 | 0.00 | 81 | 1009.6 |
| 20260507175604 | 51 | 148 | 6.1 | 12.2 | 0.00 | 0.00 | 0.00 | 81 | 1009.6 |
| 20260507175403 | 51 | 147 | 6.1 | 12.2 | 0.00 | 0.00 | 0.00 | 81 | 1009.5 |
| 20260507175205 | 51 | 148 | 6.1 | 12.2 | 0.00 | 0.00 | 0.00 | 81 | 1009.5 |
| 20260507175004 | 51 | 147 | 5.2 | 12.2 | 0.00 | 0.00 | 0.00 | 81 | 1009.6 |
| 20260507174804 | 51 | 146 | 5.2 | 12.2 | 0.00 | 0.00 | 0.00 | 81 | 1009.5 |
| 20260507174603 | 51 | 146 | 5.2 | 12.2 | 0.00 | 0.00 | 0.00 | 81 | 1009.5 |
| 20260507174403 | 51 | 145 | 5.2 | 12.2 | 0.00 | 0.00 | 0.00 | 81 | 1009.5 |
| 20260507174204 | 51 | 144 | 5.2 | 12.2 | 0.00 | 0.00 | 0.00 | 81 | 1009.5 |
| 20260507174003 | 51 | 145 | 6.1 | 12.2 | 0.00 | 0.00 | 0.00 | 81 | 1009.4 |
| 20260507173803 | 51 | 145 | 5.2 | 12.2 | 0.00 | 0.00 | 0.00 | 81 | 1009.5 |
| 20260507173604 | 51 | 145 | 5.2 | 12.2 | 0.00 | 0.00 | 0.00 | 81 | 1009.5 |
| 20260507173404 | 51 | 147 | 6.1 | 12.2 | 0.00 | 0.00 | 0.00 | 80 | 1009.5 |
| 20260507173204 | 51 | 148 | 6.1 | 12.2 | 0.00 | 0.00 | 0.00 | 80 | 1009.5 |
| 20260507173004 | 51 | 149 | 5.2 | 12.2 | 0.00 | 0.00 | 0.00 | 81 | 1009.5 |
| 20260507172804 | 51 | 151 | 6.1 | 12.2 | 0.00 | 0.00 | 0.00 | 80 | 1009.6 |
| 20260507172603 | 51 | 150 | 7.0 | 12.2 | 0.00 | 0.00 | 0.00 | 80 | 1009.6 |
| 20260507172403 | 51 | 149 | 6.1 | 12.2 | 0.00 | 0.00 | 0.00 | 80 | 1009.5 |
| 20260507172203 | 51 | 149 | 6.1 | 12.2 | 0.00 | 0.00 | 0.00 | 81 | 1009.6 |
| 20260507172004 | 51 | 148 | 6.1 | 12.2 | 0.00 | 0.00 | 0.00 | 81 | 1009.6 |
| 20260507171803 | 51 | 145 | 6.1 | 12.2 | 0.00 | 0.00 | 0.00 | 81 | 1009.6 |
| 20260507171603 | 51 | 145 | 5.2 | 10.4 | 0.00 | 0.00 | 0.00 | 82 | 1009.6 |
| 20260507171404 | 51 | 148 | 5.2 | 10.4 | 0.00 | 0.00 | 0.00 | 82 | 1009.6 |
| 20260507171204 | 51 | 148 | 5.2 | 10.4 | 0.00 | 0.00 | 0.00 | 81 | 1009.6 |
| 20260507171004 | 51 | 151 | 6.1 | 15.6 | 0.00 | 0.00 | 0.00 | 81 | 1009.6 |
| 20260507170803 | 51 | 151 | 6.1 | 15.6 | 0.00 | 0.00 | 0.00 | 81 | 1009.5 |
| 20260507170604 | 51 | 151 | 7.0 | 15.6 | 0.00 | 0.00 | 0.00 | 81 | 1009.6 |
| 20260507170403 | 51 | 150 | 7.0 | 15.6 | 0.00 | 0.00 | 0.00 | 81 | 1009.5 |
| 20260507170204 | 51 | 150 | 6.1 | 15.6 | 0.00 | 0.00 | 0.00 | 80 | 1009.5 |
| 20260507170004 | 51 | 150 | 5.2 | 15.6 | 0.00 | 0.00 | 0.00 | 81 | 1009.5 |
| 20260507165803 | 51 | 151 | 4.3 | 15.6 | 0.00 | 0.00 | 0.00 | 81 | 1009.6 |
| 20260507165603 | 51 | 151 | 3.5 | 8.7 | 0.00 | 0.00 | 0.00 | 81 | 1009.6 |
| 20260507165405 | 51 | 151 | 3.5 | 8.7 | 0.00 | 0.00 | 0.00 | 81 | 1009.7 |
| 20260507165203 | 51 | 153 | 4.3 | 10.4 | 0.00 | 0.00 | 0.00 | 81 | 1009.7 |
| 20260507165003 | 51 | 150 | 4.3 | 10.4 | 0.00 | 0.00 | 0.00 | 81 | 1009.7 |
| 20260507164803 | 51 | 150 | 4.3 | 10.4 | 0.00 | 0.00 | 0.00 | 81 | 1009.8 |
| 20260507164603 | 51 | 149 | 5.2 | 11.3 | 0.00 | 0.00 | 0.00 | 81 | 1009.8 |
| 20260507164403 | 51 | 149 | 5.2 | 11.3 | 0.00 | 0.00 | 0.00 | 81 | 1009.7 |
| 20260507164203 | 51 | 148 | 5.2 | 11.3 | 0.00 | 0.00 | 0.00 | 80 | 1009.7 |
| 20260507164005 | 51 | 148 | 5.2 | 11.3 | 0.00 | 0.00 | 0.00 | 80 | 1009.8 |
| 20260507163803 | 51 | 148 | 5.2 | 11.3 | 0.00 | 0.00 | 0.00 | 80 | 1009.8 |
| 20260507163603 | 52 | 152 | 5.2 | 11.3 | 0.00 | 0.00 | 0.00 | 80 | 1009.8 |
| 20260507163404 | 51 | 151 | 5.2 | 11.3 | 0.00 | 0.00 | 0.00 | 80 | 1009.7 |
| 20260507163203 | 52 | 151 | 5.2 | 11.3 | 0.00 | 0.00 | 0.00 | 80 | 1009.8 |
| 20260507163005 | 52 | 151 | 5.2 | 11.3 | 0.00 | 0.00 | 0.00 | 80 | 1009.8 |
| 20260507162804 | 52 | 151 | 5.2 | 11.3 | 0.00 | 0.00 | 0.00 | 80 | 1009.7 |
| 20260507162603 | 52 | 148 | 5.2 | 11.3 | 0.00 | 0.00 | 0.00 | 80 | 1009.7 |
| 20260507162403 | 52 | 148 | 5.2 | 12.2 | 0.00 | 0.00 | 0.00 | 80 | 1009.6 |
| 20260507162203 | 52 | 148 | 6.1 | 12.2 | 0.00 | 0.00 | 0.00 | 79 | 1009.6 |
| 20260507162004 | 52 | 149 | 6.1 | 12.2 | 0.00 | 0.00 | 0.00 | 79 | 1009.6 |
| 20260507161804 | 52 | 150 | 7.0 | 17.4 | 0.00 | 0.00 | 0.00 | 79 | 1009.6 |
| 20260507161604 | 52 | 150 | 7.8 | 17.4 | 0.00 | 0.00 | 0.00 | 79 | 1009.6 |
| 20260507161403 | 52 | 150 | 8.7 | 17.4 | 0.00 | 0.00 | 0.00 | 78 | 1009.6 |
| 20260507161203 | 52 | 149 | 8.7 | 17.4 | 0.00 | 0.00 | 0.00 | 77 | 1009.7 |
| 20260507161004 | 52 | 149 | 9.6 | 17.4 | 0.00 | 0.00 | 0.00 | 77 | 1009.6 |
| 20260507160803 | 52 | 148 | 9.6 | 16.5 | 0.00 | 0.00 | 0.00 | 77 | 1009.6 |
| 20260507160603 | 52 | 149 | 8.7 | 16.5 | 0.00 | 0.00 | 0.00 | 77 | 1009.6 |
| 20260507160404 | 52 | 151 | 7.8 | 16.5 | 0.00 | 0.00 | 0.00 | 77 | 1009.5 |
| 20260507160203 | 52 | 152 | 7.8 | 19.1 | 0.00 | 0.00 | 0.00 | 77 | 1009.5 |
| 20260507160003 | 52 | 152 | 7.8 | 19.1 | 0.00 | 0.00 | 0.00 | 77 | 1009.5 |
| 20260507155803 | 52 | 152 | 7.8 | 19.1 | 0.00 | 0.00 | 0.00 | 77 | 1009.6 |
| 20260507155603 | 52 | 151 | 7.0 | 19.1 | 0.00 | 0.00 | 0.00 | 77 | 1009.6 |
| 20260507155404 | 52 | 148 | 7.8 | 19.1 | 0.00 | 0.00 | 0.00 | 77 | 1009.5 |
| 20260507155205 | 52 | 147 | 7.0 | 14.8 | 0.00 | 0.00 | 0.00 | 78 | 1009.6 |
| 20260507155003 | 52 | 145 | 6.1 | 14.8 | 0.00 | 0.00 | 0.00 | 79 | 1009.5 |
| 20260507154803 | 52 | 144 | 6.1 | 14.8 | 0.00 | 0.00 | 0.00 | 79 | 1009.6 |
| 20260507154603 | 52 | 143 | 6.1 | 13.9 | 0.00 | 0.00 | 0.00 | 79 | 1009.7 |
| 20260507154405 | 52 | 144 | 6.1 | 13.9 | 0.00 | 0.00 | 0.00 | 79 | 1009.6 |
| 20260507154203 | 53 | 144 | 6.1 | 13.9 | 0.00 | 0.00 | 0.00 | 79 | 1009.6 |
| 20260507154003 | 53 | 145 | 6.1 | 13.9 | 0.00 | 0.00 | 0.00 | 79 | 1009.6 |
| 20260507153803 | 53 | 146 | 7.0 | 14.8 | 0.00 | 0.00 | 0.00 | 79 | 1009.6 |
| 20260507153604 | 53 | 147 | 7.0 | 14.8 | 0.00 | 0.00 | 0.00 | 79 | 1009.6 |
| 20260507153404 | 53 | 147 | 7.0 | 14.8 | 0.00 | 0.00 | 0.00 | 78 | 1009.7 |
| 20260507153204 | 53 | 147 | 7.8 | 14.8 | 0.00 | 0.00 | 0.00 | 78 | 1009.7 |
| 20260507153004 | 53 | 147 | 7.8 | 14.8 | 0.00 | 0.00 | 0.00 | 78 | 1009.6 |
| 20260507152803 | 53 | 147 | 7.8 | 13.9 | 0.00 | 0.00 | 0.00 | 78 | 1009.7 |
| 20260507152604 | 53 | 147 | 7.0 | 11.3 | 0.00 | 0.00 | 0.00 | 78 | 1009.7 |
| 20260507152404 | 53 | 147 | 7.8 | 14.8 | 0.00 | 0.00 | 0.00 | 78 | 1009.7 |
| 20260507152203 | 52 | 146 | 7.8 | 14.8 | 0.00 | 0.00 | 0.00 | 78 | 1009.8 |
| 20260507152004 | 52 | 147 | 7.8 | 14.8 | 0.00 | 0.00 | 0.00 | 78 | 1009.8 |
| 20260507151803 | 52 | 147 | 7.8 | 14.8 | 0.00 | 0.00 | 0.00 | 78 | 1009.9 |
| 20260507151604 | 52 | 147 | 7.8 | 14.8 | 0.00 | 0.00 | 0.00 | 77 | 1009.9 |
| 20260507151404 | 52 | 149 | 7.8 | 14.8 | 0.00 | 0.00 | 0.00 | 77 | 1009.9 |
| 20260507151203 | 52 | 150 | 7.0 | 15.6 | 0.00 | 0.00 | 0.00 | 77 | 1010.0 |
| 20260507151003 | 52 | 149 | 7.0 | 15.6 | 0.00 | 0.00 | 0.00 | 77 | 1010.0 |
| 20260507150804 | 52 | 149 | 6.1 | 15.6 | 0.00 | 0.00 | 0.00 | 76 | 1010.1 |
| 20260507150604 | 53 | 150 | 6.1 | 15.6 | 0.00 | 0.00 | 0.00 | 76 | 1010.0 |
| 20260507150403 | 53 | 149 | 6.1 | 15.6 | 0.00 | 0.00 | 0.00 | 76 | 1010.0 |
| 20260507150203 | 53 | 148 | 6.1 | 14.8 | 0.00 | 0.00 | 0.00 | 76 | 1010.0 |
| 20260507150005 | 53 | 148 | 7.0 | 14.8 | 0.00 | 0.00 | 0.00 | 76 | 1010.0 |
| 20260507145803 | 53 | 148 | 7.8 | 14.8 | 0.00 | 0.00 | 0.00 | 76 | 1010.1 |
| 20260507145604 | 53 | 148 | 7.8 | 14.8 | 0.00 | 0.00 | 0.00 | 75 | 1010.1 |
| 20260507145403 | 53 | 148 | 8.7 | 15.6 | 0.00 | 0.00 | 0.00 | 75 | 1010.1 |
| 20260507145203 | 53 | 149 | 9.6 | 20.0 | 0.00 | 0.00 | 0.00 | 74 | 1010.1 |
| 20260507145004 | 54 | 151 | 9.6 | 20.0 | 0.00 | 0.00 | 0.00 | 74 | 1010.1 |
| 20260507144804 | 54 | 151 | 9.6 | 20.0 | 0.00 | 0.00 | 0.00 | 74 | 1010.2 |
| 20260507144603 | 54 | 151 | 10.4 | 20.0 | 0.00 | 0.00 | 0.00 | 74 | 1010.2 |
| 20260507144403 | 54 | 150 | 9.6 | 20.0 | 0.00 | 0.00 | 0.00 | 74 | 1010.1 |
| 20260507144204 | 54 | 149 | 9.6 | 20.0 | 0.00 | 0.00 | 0.00 | 74 | 1010.1 |
| 20260507144003 | 54 | 148 | 9.6 | 20.0 | 0.00 | 0.00 | 0.00 | 73 | 1010.1 |
| 20260507143803 | 55 | 148 | 9.6 | 20.0 | 0.00 | 0.00 | 0.00 | 73 | 1010.2 |
| 20260507143603 | 55 | 148 | 9.6 | 20.0 | 0.00 | 0.00 | 0.00 | 73 | 1010.2 |
| 20260507143403 | 55 | 149 | 8.7 | 19.1 | 0.00 | 0.00 | 0.00 | 73 | 1010.2 |
| 20260507143204 | 55 | 149 | 8.7 | 16.5 | 0.00 | 0.00 | 0.00 | 73 | 1010.2 |
| 20260507143003 | 55 | 150 | 8.7 | 16.5 | 0.00 | 0.00 | 0.00 | 74 | 1010.3 |
| 20260507142803 | 55 | 149 | 8.7 | 16.5 | 0.00 | 0.00 | 0.00 | 74 | 1010.2 |
| 20260507142604 | 54 | 148 | 8.7 | 16.5 | 0.00 | 0.00 | 0.00 | 74 | 1010.3 |
| 20260507142403 | 54 | 148 | 7.8 | 15.6 | 0.00 | 0.00 | 0.00 | 74 | 1010.2 |
| 20260507142205 | 54 | 148 | 7.0 | 15.6 | 0.00 | 0.00 | 0.00 | 74 | 1010.4 |
| 20260507142003 | 54 | 150 | 6.1 | 15.6 | 0.00 | 0.00 | 0.00 | 74 | 1010.3 |
| 20260507141804 | 54 | 155 | 6.1 | 13.9 | 0.00 | 0.00 | 0.00 | 76 | 1010.3 |
| 20260507141605 | 53 | 159 | 6.1 | 13.9 | 0.00 | 0.00 | 0.00 | 76 | 1010.3 |
| 20260507141403 | 53 | 157 | 7.0 | 16.5 | 0.00 | 0.00 | 0.00 | 74 | 1010.4 |
| 20260507141203 | 53 | 159 | 7.0 | 16.5 | 0.00 | 0.00 | 0.00 | 73 | 1010.4 |
| 20260507141003 | 53 | 158 | 6.1 | 16.5 | 0.00 | 0.00 | 0.00 | 73 | 1010.4 |
| 20260507140804 | 53 | 155 | 6.1 | 16.5 | 0.00 | 0.00 | 0.00 | 73 | 1010.5 |
| 20260507140603 | 53 | 160 | 5.2 | 15.6 | 0.00 | 0.00 | 0.00 | 73 | 1010.4 |
| 20260507140403 | 53 | 162 | 4.3 | 12.2 | 0.00 | 0.00 | 0.00 | 73 | 1010.5 |
| 20260507140204 | 53 | 158 | 5.2 | 12.2 | 0.00 | 0.00 | 0.00 | 73 | 1010.5 |
| 20260507140003 | 53 | 155 | 6.1 | 14.8 | 0.00 | 0.00 | 0.00 | 72 | 1010.6 |
| 20260507135804 | 53 | 153 | 7.0 | 14.8 | 0.00 | 0.00 | 0.00 | 73 | 1010.6 |
| 20260507135603 | 53 | 149 | 7.8 | 15.6 | 0.00 | 0.00 | 0.00 | 73 | 1010.5 |
| 20260507135404 | 53 | 149 | 8.7 | 15.6 | 0.00 | 0.00 | 0.00 | 73 | 1010.5 |
| 20260507135203 | 53 | 149 | 8.7 | 15.6 | 0.00 | 0.00 | 0.00 | 73 | 1010.6 |
| 20260507135003 | 53 | 148 | 8.7 | 15.6 | 0.00 | 0.00 | 0.00 | 73 | 1010.5 |
| 20260507134804 | 53 | 149 | 7.8 | 15.6 | 0.00 | 0.00 | 0.00 | 72 | 1010.6 |
| 20260507134604 | 53 | 149 | 7.8 | 15.6 | 0.00 | 0.00 | 0.00 | 72 | 1010.6 |
| 20260507134403 | 53 | 149 | 7.0 | 14.8 | 0.00 | 0.00 | 0.00 | 73 | 1010.6 |
| 20260507134204 | 53 | 150 | 7.0 | 13.9 | 0.00 | 0.00 | 0.00 | 73 | 1010.5 |
| 20260507134004 | 53 | 151 | 6.1 | 13.9 | 0.00 | 0.00 | 0.00 | 73 | 1010.5 |
| 20260507133804 | 53 | 150 | 6.1 | 13.9 | 0.00 | 0.00 | 0.00 | 72 | 1010.6 |
| 20260507133603 | 53 | 151 | 6.1 | 14.8 | 0.00 | 0.00 | 0.00 | 73 | 1010.5 |
| 20260507133403 | 53 | 154 | 5.2 | 14.8 | 0.00 | 0.00 | 0.00 | 73 | 1010.6 |
| 20260507133205 | 53 | 159 | 5.2 | 14.8 | 0.00 | 0.00 | 0.00 | 73 | 1010.6 |
| 20260507133003 | 53 | 157 | 5.2 | 14.8 | 0.00 | 0.00 | 0.00 | 73 | 1010.6 |
| 20260507132803 | 53 | 158 | 5.2 | 13.9 | 0.00 | 0.00 | 0.00 | 73 | 1010.6 |
| 20260507132603 | 53 | 163 | 4.3 | 11.3 | 0.00 | 0.00 | 0.00 | 72 | 1010.6 |
| 20260507132403 | 52 | 163 | 4.3 | 11.3 | 0.00 | 0.00 | 0.00 | 72 | 1010.7 |
| 20260507132204 | 53 | 162 | 5.2 | 13.9 | 0.00 | 0.00 | 0.00 | 72 | 1010.6 |
| 20260507132004 | 52 | 168 | 5.2 | 13.9 | 0.00 | 0.00 | 0.00 | 71 | 1010.7 |
| 20260507131803 | 53 | 168 | 5.2 | 13.9 | 0.00 | 0.00 | 0.00 | 71 | 1010.7 |
| 20260507131603 | 53 | 168 | 5.2 | 13.9 | 0.00 | 0.00 | 0.00 | 71 | 1010.7 |
| 20260507131403 | 53 | 164 | 6.1 | 13.9 | 0.00 | 0.00 | 0.00 | 70 | 1010.7 |
| 20260507131203 | 53 | 164 | 6.1 | 15.6 | 0.00 | 0.00 | 0.00 | 70 | 1010.7 |
| 20260507131003 | 53 | 161 | 7.0 | 15.6 | 0.00 | 0.00 | 0.00 | 70 | 1010.7 |
| 20260507130803 | 53 | 159 | 7.0 | 15.6 | 0.00 | 0.00 | 0.00 | 69 | 1010.7 |
| 20260507130603 | 53 | 157 | 7.8 | 15.6 | 0.00 | 0.00 | 0.00 | 69 | 1010.6 |
| 20260507130403 | 53 | 159 | 7.8 | 20.0 | 0.00 | 0.00 | 0.00 | 68 | 1010.6 |
| 20260507130203 | 54 | 154 | 7.8 | 20.0 | 0.00 | 0.00 | 0.00 | 68 | 1010.6 |
| 20260507130004 | 54 | 155 | 7.8 | 20.0 | 0.00 | 0.00 | 0.00 | 67 | 1010.5 |
| 20260507125805 | 54 | 156 | 7.0 | 20.0 | 0.00 | 0.00 | 0.00 | 67 | 1010.6 |
| 20260507125603 | 54 | 158 | 6.1 | 20.0 | 0.00 | 0.00 | 0.00 | 69 | 1010.6 |
| 20260507125403 | 54 | 161 | 6.1 | 19.1 | 0.00 | 0.00 | 0.00 | 68 | 1010.6 |
| 20260507125203 | 54 | 162 | 6.1 | 15.6 | 0.00 | 0.00 | 0.00 | 69 | 1010.6 |
| 20260507125003 | 54 | 159 | 6.1 | 15.6 | 0.00 | 0.00 | 0.00 | 70 | 1010.5 |
| 20260507124803 | 54 | 155 | 7.0 | 15.6 | 0.00 | 0.00 | 0.00 | 69 | 1010.6 |
| 20260507124603 | 54 | 153 | 7.0 | 15.6 | 0.00 | 0.00 | 0.00 | 68 | 1010.6 |
| 20260507124404 | 54 | 151 | 7.0 | 20.0 | 0.00 | 0.00 | 0.00 | 69 | 1010.5 |
| 20260507124205 | 54 | 152 | 7.8 | 20.0 | 0.00 | 0.00 | 0.00 | 69 | 1010.6 |
| 20260507124004 | 54 | 154 | 7.8 | 20.0 | 0.00 | 0.00 | 0.00 | 68 | 1010.5 |
| 20260507123803 | 54 | 155 | 7.8 | 20.0 | 0.00 | 0.00 | 0.00 | 68 | 1010.5 |
| 20260507123603 | 55 | 156 | 7.8 | 20.0 | 0.00 | 0.00 | 0.00 | 67 | 1010.4 |
| 20260507123403 | 55 | 157 | 7.8 | 17.4 | 0.00 | 0.00 | 0.00 | 67 | 1010.5 |
| 20260507123203 | 55 | 157 | 7.0 | 17.4 | 0.00 | 0.00 | 0.00 | 67 | 1010.4 |
| 20260507123003 | 55 | 158 | 7.0 | 14.8 | 0.00 | 0.00 | 0.00 | 68 | 1010.5 |
| 20260507122803 | 55 | 159 | 7.0 | 14.8 | 0.00 | 0.00 | 0.00 | 66 | 1010.4 |
| 20260507122603 | 55 | 156 | 7.0 | 14.8 | 0.00 | 0.00 | 0.00 | 67 | 1010.3 |
| 20260507122404 | 55 | 156 | 7.8 | 15.6 | 0.00 | 0.00 | 0.00 | 66 | 1010.5 |
| 20260507122203 | 55 | 154 | 7.8 | 16.5 | 0.00 | 0.00 | 0.00 | 67 | 1010.6 |
| 20260507122004 | 55 | 153 | 7.8 | 16.5 | 0.00 | 0.00 | 0.00 | 67 | 1010.5 |
| 20260507121803 | 55 | 151 | 7.0 | 16.5 | 0.00 | 0.00 | 0.00 | 66 | 1010.4 |
| 20260507121603 | 55 | 152 | 7.0 | 16.5 | 0.00 | 0.00 | 0.00 | 66 | 1010.4 |
| 20260507121404 | 55 | 149 | 6.1 | 16.5 | 0.00 | 0.00 | 0.00 | 68 | 1010.5 |
| 20260507121203 | 55 | 149 | 5.2 | 14.8 | 0.00 | 0.00 | 0.00 | 69 | 1010.4 |
| 20260507121004 | 55 | 149 | 6.1 | 10.4 | 0.00 | 0.00 | 0.00 | 69 | 1010.4 |
| 20260507120804 | 55 | 149 | 6.1 | 11.3 | 0.00 | 0.00 | 0.00 | 68 | 1010.3 |
| 20260507120604 | 55 | 149 | 7.0 | 12.2 | 0.00 | 0.00 | 0.00 | 69 | 1010.4 |
| 20260507120403 | 55 | 150 | 7.0 | 12.2 | 0.00 | 0.00 | 0.00 | 69 | 1010.4 |
| 20260507120204 | 55 | 150 | 7.0 | 12.2 | 0.00 | 0.00 | 0.00 | 68 | 1010.4 |
| 20260507120003 | 55 | 149 | 7.0 | 12.2 | 0.00 | 0.00 | 0.00 | 67 | 1010.4 |
| 20260507115804 | 55 | 149 | 7.0 | 12.2 | 0.00 | 0.00 | 0.00 | 68 | 1010.4 |
| 20260507115604 | 55 | 150 | 7.0 | 12.2 | 0.00 | 0.00 | 0.00 | 68 | 1010.4 |
| 20260507115404 | 55 | 151 | 7.0 | 13.9 | 0.00 | 0.00 | 0.00 | 68 | 1010.5 |
| 20260507115203 | 55 | 150 | 7.8 | 14.8 | 0.00 | 0.00 | 0.00 | 67 | 1010.5 |
| 20260507115003 | 55 | 150 | 8.7 | 16.5 | 0.00 | 0.00 | 0.00 | 67 | 1010.5 |
| 20260507114803 | 55 | 153 | 8.7 | 16.5 | 0.00 | 0.00 | 0.00 | 66 | 1010.5 |
| 20260507114604 | 55 | 157 | 7.8 | 16.5 | 0.00 | 0.00 | 0.00 | 65 | 1010.6 |
| 20260507114404 | 55 | 160 | 7.0 | 16.5 | 0.00 | 0.00 | 0.00 | 65 | 1010.5 |
| 20260507114203 | 56 | 169 | 6.1 | 16.5 | 0.00 | 0.00 | 0.00 | 66 | 1010.6 |
| 20260507114003 | 56 | 177 | 5.2 | 13.9 | 0.00 | 0.00 | 0.00 | 65 | 1010.7 |
| 20260507113803 | 56 | 175 | 5.2 | 13.9 | 0.00 | 0.00 | 0.00 | 64 | 1010.7 |
| 20260507113603 | 56 | 168 | 6.1 | 14.8 | 0.00 | 0.00 | 0.00 | 64 | 1010.6 |
| 20260507113404 | 56 | 164 | 6.1 | 14.8 | 0.00 | 0.00 | 0.00 | 64 | 1010.6 |
| 20260507113204 | 56 | 157 | 7.0 | 17.4 | 0.00 | 0.00 | 0.00 | 66 | 1010.6 |
| 20260507113003 | 56 | 154 | 7.0 | 17.4 | 0.00 | 0.00 | 0.00 | 66 | 1010.7 |
| 20260507112804 | 56 | 152 | 7.8 | 17.4 | 0.00 | 0.00 | 0.00 | 66 | 1010.6 |
| 20260507112603 | 56 | 151 | 8.7 | 17.4 | 0.00 | 0.00 | 0.00 | 66 | 1010.6 |
| 20260507112403 | 56 | 151 | 8.7 | 17.4 | 0.00 | 0.00 | 0.00 | 66 | 1010.5 |
| 20260507112204 | 56 | 156 | 8.7 | 20.9 | 0.00 | 0.00 | 0.00 | 67 | 1010.4 |
| 20260507112004 | 56 | 161 | 8.7 | 20.9 | 0.00 | 0.00 | 0.00 | 65 | 1010.3 |
| 20260507111803 | 56 | 167 | 8.7 | 20.9 | 0.00 | 0.00 | 0.00 | 66 | 1010.3 |
| 20260507111603 | 56 | 171 | 7.8 | 20.9 | 0.00 | 0.00 | 0.00 | 66 | 1010.3 |
| 20260507111403 | 56 | 176 | 7.0 | 20.9 | 0.00 | 0.00 | 0.00 | 65 | 1010.3 |
| 20260507111203 | 56 | 173 | 7.0 | 20.0 | 0.00 | 0.00 | 0.00 | 65 | 1010.3 |
| 20260507111003 | 56 | 166 | 6.1 | 12.2 | 0.00 | 0.00 | 0.00 | 65 | 1010.4 |
| 20260507110803 | 56 | 160 | 6.1 | 12.2 | 0.00 | 0.00 | 0.00 | 65 | 1010.4 |
| 20260507110603 | 56 | 156 | 7.0 | 19.1 | 0.00 | 0.00 | 0.00 | 68 | 1010.4 |
| 20260507110403 | 56 | 152 | 7.8 | 20.0 | 0.00 | 0.00 | 0.00 | 68 | 1010.4 |
| 20260507110204 | 55 | 150 | 8.7 | 20.0 | 0.00 | 0.00 | 0.00 | 68 | 1010.5 |
| 20260507110004 | 55 | 151 | 8.7 | 20.0 | 0.00 | 0.00 | 0.00 | 68 | 1010.5 |
| 20260507105803 | 55 | 150 | 8.7 | 20.0 | 0.00 | 0.00 | 0.00 | 65 | 1010.5 |
| 20260507105604 | 56 | 150 | 7.8 | 20.0 | 0.00 | 0.00 | 0.00 | 65 | 1010.5 |
| 20260507105404 | 56 | 149 | 7.8 | 19.1 | 0.00 | 0.00 | 0.00 | 65 | 1010.5 |
| 20260507105203 | 56 | 149 | 7.8 | 16.5 | 0.00 | 0.00 | 0.00 | 67 | 1010.6 |
| 20260507105004 | 56 | 149 | 8.7 | 20.9 | 0.00 | 0.00 | 0.00 | 68 | 1010.6 |
| 20260507104804 | 56 | 149 | 8.7 | 20.9 | 0.00 | 0.00 | 0.00 | 66 | 1010.6 |
| 20260507104603 | 56 | 149 | 8.7 | 20.9 | 0.00 | 0.00 | 0.00 | 67 | 1010.6 |
| 20260507104404 | 56 | 149 | 8.7 | 20.9 | 0.00 | 0.00 | 0.00 | 66 | 1010.6 |
| 20260507104204 | 56 | 153 | 7.8 | 20.9 | 0.00 | 0.00 | 0.00 | 67 | 1010.6 |
| 20260507104003 | 56 | 155 | 7.0 | 16.5 | 0.00 | 0.00 | 0.00 | 67 | 1010.6 |
| 20260507103803 | 56 | 156 | 7.8 | 15.6 | 0.00 | 0.00 | 0.00 | 67 | 1010.7 |
| 20260507103603 | 56 | 160 | 7.0 | 15.6 | 0.00 | 0.00 | 0.00 | 66 | 1010.6 |
| 20260507103403 | 56 | 163 | 6.1 | 14.8 | 0.00 | 0.00 | 0.00 | 65 | 1010.6 |
| 20260507103203 | 56 | 157 | 7.0 | 14.8 | 0.00 | 0.00 | 0.00 | 66 | 1010.7 |
| 20260507103004 | 56 | 155 | 7.8 | 15.6 | 0.00 | 0.00 | 0.00 | 66 | 1010.7 |
| 20260507102803 | 56 | 153 | 7.8 | 16.5 | 0.00 | 0.00 | 0.00 | 67 | 1010.7 |
| 20260507102603 | 56 | 150 | 8.7 | 16.5 | 0.00 | 0.00 | 0.00 | 68 | 1010.6 |
| 20260507102403 | 56 | 150 | 8.7 | 16.5 | 0.00 | 0.00 | 0.00 | 67 | 1010.6 |
| 20260507102204 | 56 | 151 | 7.8 | 16.5 | 0.00 | 0.00 | 0.00 | 67 | 1010.6 |
| 20260507102007 | 56 | 151 | 7.8 | 16.5 | 0.00 | 0.00 | 0.00 | 68 | 1010.5 |
| 20260507101803 | 56 | 150 | 7.0 | 14.8 | 0.00 | 0.00 | 0.00 | 67 | 1010.5 |
| 20260507101603 | 56 | 153 | 7.0 | 14.8 | 0.00 | 0.00 | 0.00 | 67 | 1010.6 |
| 20260507101404 | 56 | 153 | 7.0 | 14.8 | 0.00 | 0.00 | 0.00 | 68 | 1010.6 |
| 20260507101203 | 56 | 153 | 7.0 | 14.8 | 0.00 | 0.00 | 0.00 | 68 | 1010.6 |
| 20260507101003 | 56 | 153 | 7.0 | 13.9 | 0.00 | 0.00 | 0.00 | 69 | 1010.7 |
| 20260507100804 | 56 | 154 | 7.0 | 13.9 | 0.00 | 0.00 | 0.00 | 68 | 1010.8 |
| 20260507100603 | 56 | 151 | 7.0 | 13.9 | 0.00 | 0.00 | 0.00 | 68 | 1010.8 |
| 20260507100404 | 56 | 149 | 7.0 | 13.9 | 0.00 | 0.00 | 0.00 | 69 | 1010.7 |
| 20260507100203 | 56 | 151 | 7.0 | 13.9 | 0.00 | 0.00 | 0.00 | 69 | 1010.7 |
| 20260507100003 | 55 | 154 | 6.1 | 13.9 | 0.00 | 0.00 | 0.00 | 69 | 1010.7 |
| 20260507095803 | 55 | 153 | 7.0 | 16.5 | 0.00 | 0.00 | 0.00 | 68 | 1010.6 |
| 20260507095603 | 55 | 153 | 7.8 | 16.5 | 0.00 | 0.00 | 0.00 | 69 | 1010.7 |
| 20260507095403 | 55 | 158 | 7.0 | 16.5 | 0.00 | 0.00 | 0.00 | 68 | 1010.7 |
| 20260507095203 | 55 | 155 | 7.8 | 16.5 | 0.00 | 0.00 | 0.00 | 69 | 1010.7 |
| 20260507095003 | 55 | 153 | 8.7 | 16.5 | 0.00 | 0.00 | 0.00 | 69 | 1010.6 |
| 20260507094803 | 55 | 154 | 8.7 | 15.6 | 0.00 | 0.00 | 0.00 | 69 | 1010.7 |
| 20260507094605 | 55 | 154 | 7.8 | 15.6 | 0.00 | 0.00 | 0.00 | 68 | 1010.6 |
| 20260507094403 | 55 | 152 | 8.7 | 15.6 | 0.00 | 0.00 | 0.00 | 69 | 1010.7 |
| 20260507094204 | 55 | 151 | 7.8 | 15.6 | 0.00 | 0.00 | 0.00 | 68 | 1010.7 |
| 20260507094004 | 55 | 153 | 7.0 | 14.8 | 0.00 | 0.00 | 0.00 | 68 | 1010.7 |
| 20260507093803 | 55 | 154 | 6.1 | 14.8 | 0.00 | 0.00 | 0.00 | 70 | 1010.7 |
| 20260507093604 | 55 | 161 | 6.1 | 16.5 | 0.00 | 0.00 | 0.00 | 70 | 1010.7 |
| 20260507093403 | 54 | 161 | 7.0 | 16.5 | 0.00 | 0.00 | 0.00 | 70 | 1010.7 |
| 20260507093204 | 54 | 165 | 7.0 | 16.5 | 0.00 | 0.00 | 0.00 | 70 | 1010.7 |
| 20260507093005 | 54 | 161 | 7.0 | 16.5 | 0.00 | 0.00 | 0.00 | 69 | 1010.7 |
| 20260507092803 | 54 | 161 | 7.0 | 17.4 | 0.00 | 0.00 | 0.00 | 67 | 1010.7 |
| 20260507092604 | 54 | 154 | 7.0 | 17.4 | 0.00 | 0.00 | 0.00 | 68 | 1010.7 |
| 20260507092403 | 54 | 156 | 6.1 | 17.4 | 0.00 | 0.00 | 0.00 | 68 | 1010.7 |
| 20260507092203 | 54 | 154 | 6.1 | 17.4 | 0.00 | 0.00 | 0.00 | 68 | 1010.7 |
| 20260507092003 | 54 | 155 | 6.1 | 17.4 | 0.00 | 0.00 | 0.00 | 69 | 1010.7 |
| 20260507091803 | 54 | 156 | 6.1 | 14.8 | 0.00 | 0.00 | 0.00 | 70 | 1010.7 |
| 20260507091603 | 54 | 157 | 6.1 | 14.8 | 0.00 | 0.00 | 0.00 | 68 | 1010.7 |
| 20260507091403 | 54 | 154 | 6.1 | 14.8 | 0.00 | 0.00 | 0.00 | 69 | 1010.7 |
| 20260507091204 | 53 | 158 | 6.1 | 15.6 | 0.00 | 0.00 | 0.00 | 70 | 1010.7 |
| 20260507091004 | 53 | 163 | 6.1 | 15.6 | 0.00 | 0.00 | 0.00 | 70 | 1010.7 |
| 20260507090804 | 52 | 167 | 6.1 | 15.6 | 0.00 | 0.00 | 0.00 | 72 | 1010.8 |
| 20260507090604 | 52 | 170 | 6.1 | 15.6 | 0.00 | 0.00 | 0.00 | 71 | 1010.8 |
| 20260507090403 | 52 | 173 | 6.1 | 15.6 | 0.00 | 0.00 | 0.00 | 70 | 1010.8 |
| 20260507090204 | 51 | 170 | 6.1 | 15.6 | 0.00 | 0.00 | 0.00 | 70 | 1010.7 |
| 20260507090004 | 51 | 166 | 6.1 | 15.6 | 0.00 | 0.00 | 0.00 | 70 | 1010.7 |
| 20260507085804 | 51 | 163 | 6.1 | 15.6 | 0.00 | 0.00 | 0.00 | 70 | 1010.8 |
| 20260507085603 | 51 | 162 | 6.1 | 15.6 | 0.00 | 0.00 | 0.00 | 70 | 1010.8 |
| 20260507085404 | 51 | 163 | 6.1 | 15.6 | 0.00 | 0.00 | 0.00 | 70 | 1010.8 |
| 20260507085203 | 51 | 162 | 6.1 | 15.6 | 0.00 | 0.00 | 0.00 | 70 | 1010.8 |
| 20260507085003 | 51 | 167 | 5.2 | 14.8 | 0.00 | 0.00 | 0.00 | 70 | 1010.7 |
| 20260507084803 | 51 | 170 | 5.2 | 11.3 | 0.00 | 0.00 | 0.00 | 69 | 1010.8 |
| 20260507084604 | 52 | 167 | 5.2 | 12.2 | 0.00 | 0.00 | 0.00 | 68 | 1010.9 |
| 20260507084403 | 52 | 163 | 5.2 | 12.2 | 0.00 | 0.00 | 0.00 | 69 | 1010.8 |
| 20260507084203 | 52 | 165 | 5.2 | 12.2 | 0.00 | 0.00 | 0.00 | 69 | 1010.8 |
| 20260507084003 | 52 | 163 | 6.1 | 12.2 | 0.00 | 0.00 | 0.00 | 68 | 1010.8 |
| 20260507083803 | 52 | 164 | 6.1 | 12.2 | 0.00 | 0.00 | 0.00 | 69 | 1010.7 |
| 20260507083603 | 52 | 163 | 6.1 | 13.9 | 0.00 | 0.00 | 0.00 | 69 | 1010.7 |
| 20260507083403 | 52 | 162 | 6.1 | 13.9 | 0.00 | 0.00 | 0.00 | 71 | 1010.7 |
| 20260507083203 | 51 | 158 | 6.1 | 13.9 | 0.00 | 0.00 | 0.00 | 71 | 1010.7 |
| 20260507083003 | 51 | 156 | 6.1 | 13.9 | 0.00 | 0.00 | 0.00 | 70 | 1010.7 |
| 20260507082803 | 51 | 154 | 6.1 | 13.9 | 0.00 | 0.00 | 0.00 | 70 | 1010.8 |
| 20260507082604 | 51 | 154 | 6.1 | 12.2 | 0.00 | 0.00 | 0.00 | 70 | 1010.7 |
| 20260507082403 | 51 | 154 | 6.1 | 13.9 | 0.00 | 0.00 | 0.00 | 69 | 1010.7 |
| 20260507082204 | 51 | 158 | 6.1 | 14.8 | 0.00 | 0.00 | 0.00 | 69 | 1010.8 |
| 20260507082004 | 51 | 162 | 6.1 | 14.8 | 0.00 | 0.00 | 0.00 | 69 | 1010.8 |
| 20260507081803 | 51 | 163 | 5.2 | 14.8 | 0.00 | 0.00 | 0.00 | 69 | 1010.7 |
| 20260507081603 | 51 | 167 | 5.2 | 14.8 | 0.00 | 0.00 | 0.00 | 69 | 1010.8 |
| 20260507081403 | 51 | 170 | 5.2 | 14.8 | 0.00 | 0.00 | 0.00 | 69 | 1010.8 |
| 20260507081203 | 51 | 164 | 5.2 | 11.3 | 0.00 | 0.00 | 0.00 | 70 | 1010.8 |
| 20260507081003 | 51 | 157 | 5.2 | 11.3 | 0.00 | 0.00 | 0.00 | 71 | 1010.8 |
| 20260507080805 | 51 | 156 | 5.2 | 11.3 | 0.00 | 0.00 | 0.00 | 71 | 1010.8 |
| 20260507080603 | 50 | 154 | 5.2 | 11.3 | 0.00 | 0.00 | 0.00 | 71 | 1010.8 |
| 20260507080403 | 50 | 149 | 5.2 | 13.9 | 0.00 | 0.00 | 0.00 | 72 | 1010.9 |
| 20260507080203 | 50 | 150 | 5.2 | 13.9 | 0.00 | 0.00 | 0.00 | 71 | 1010.9 |
| 20260507080003 | 50 | 152 | 4.3 | 13.9 | 0.00 | 0.00 | 0.00 | 72 | 1010.9 |
| 20260507075804 | 51 | 151 | 4.3 | 13.9 | 0.00 | 0.00 | 0.00 | 72 | 1010.9 |
| 20260507075604 | 50 | 150 | 4.3 | 13.9 | 0.00 | 0.00 | 0.00 | 72 | 1010.9 |
| 20260507075404 | 51 | 151 | 4.3 | 10.4 | 0.00 | 0.00 | 0.00 | 72 | 1010.9 |
| 20260507075203 | 50 | 150 | 4.3 | 9.6 | 0.00 | 0.00 | 0.00 | 72 | 1010.9 |
| 20260507075003 | 50 | 147 | 5.2 | 9.6 | 0.00 | 0.00 | 0.00 | 72 | 1010.9 |
| 20260507074804 | 50 | 146 | 5.2 | 11.3 | 0.00 | 0.00 | 0.00 | 72 | 1011.0 |
| 20260507074603 | 50 | 145 | 5.2 | 11.3 | 0.00 | 0.00 | 0.00 | 72 | 1011.0 |
| 20260507074404 | 50 | 145 | 5.2 | 11.3 | 0.00 | 0.00 | 0.00 | 72 | 1011.0 |
| 20260507074203 | 51 | 145 | 5.2 | 11.3 | 0.00 | 0.00 | 0.00 | 72 | 1010.9 |
| 20260507074004 | 51 | 146 | 4.3 | 11.3 | 0.00 | 0.00 | 0.00 | 72 | 1010.9 |
| 20260507073805 | 51 | 147 | 4.3 | 9.6 | 0.00 | 0.00 | 0.00 | 73 | 1010.9 |
| 20260507073603 | 51 | 148 | 5.2 | 10.4 | 0.00 | 0.00 | 0.00 | 73 | 1010.9 |
| 20260507073403 | 51 | 147 | 6.1 | 10.4 | 0.00 | 0.00 | 0.00 | 74 | 1011.0 |
| 20260507073204 | 50 | 148 | 6.1 | 10.4 | 0.00 | 0.00 | 0.00 | 74 | 1010.9 |
| 20260507073004 | 50 | 148 | 6.1 | 10.4 | 0.00 | 0.00 | 0.00 | 74 | 1010.9 |
| 20260507072804 | 50 | 149 | 6.1 | 12.2 | 0.00 | 0.00 | 0.00 | 75 | 1011.0 |
| 20260507072604 | 49 | 151 | 6.1 | 12.2 | 0.00 | 0.00 | 0.00 | 75 | 1010.9 |
| 20260507072403 | 49 | 153 | 6.1 | 12.2 | 0.00 | 0.00 | 0.00 | 75 | 1010.9 |
| 20260507072204 | 49 | 152 | 6.1 | 12.2 | 0.00 | 0.00 | 0.00 | 75 | 1010.9 |
| 20260507072003 | 48 | 150 | 6.1 | 12.2 | 0.00 | 0.00 | 0.00 | 75 | 1010.9 |
| 20260507071803 | 48 | 150 | 7.0 | 11.3 | 0.00 | 0.00 | 0.00 | 75 | 1010.9 |
| 20260507071603 | 48 | 148 | 7.0 | 11.3 | 0.00 | 0.00 | 0.00 | 75 | 1010.9 |
| 20260507071403 | 48 | 147 | 7.0 | 11.3 | 0.00 | 0.00 | 0.00 | 75 | 1011.0 |
| 20260507071203 | 48 | 146 | 6.1 | 11.3 | 0.00 | 0.00 | 0.00 | 75 | 1011.0 |
| 20260507071003 | 48 | 147 | 6.1 | 11.3 | 0.00 | 0.00 | 0.00 | 75 | 1010.9 |
| 20260507070804 | 48 | 147 | 5.2 | 14.8 | 0.00 | 0.00 | 0.00 | 76 | 1011.0 |
| 20260507070603 | 48 | 147 | 5.2 | 14.8 | 0.00 | 0.00 | 0.00 | 77 | 1011.0 |
| 20260507070404 | 47 | 149 | 5.2 | 14.8 | 0.00 | 0.00 | 0.00 | 76 | 1011.0 |
| 20260507070203 | 47 | 152 | 5.2 | 14.8 | 0.00 | 0.00 | 0.00 | 76 | 1011.0 |
| 20260507070004 | 47 | 151 | 5.2 | 14.8 | 0.00 | 0.00 | 0.00 | 76 | 1011.0 |
| 20260507065804 | 47 | 151 | 5.2 | 11.3 | 0.00 | 0.00 | 0.00 | 76 | 1011.0 |
| 20260507065603 | 47 | 152 | 6.1 | 12.2 | 0.00 | 0.00 | 0.00 | 76 | 1011.0 |
| 20260507065405 | 47 | 151 | 6.1 | 12.2 | 0.00 | 0.00 | 0.00 | 76 | 1010.9 |
| 20260507065204 | 47 | 149 | 6.1 | 12.2 | 0.00 | 0.00 | 0.00 | 76 | 1011.0 |
| 20260507065005 | 47 | 149 | 6.1 | 12.2 | 0.00 | 0.00 | 0.00 | 76 | 1011.0 |
| 20260507064803 | 47 | 150 | 6.1 | 12.2 | 0.00 | 0.00 | 0.00 | 76 | 1011.0 |
| 20260507064603 | 47 | 149 | 5.2 | 12.2 | 0.00 | 0.00 | 0.00 | 76 | 1011.0 |
| 20260507064403 | 47 | 149 | 5.2 | 10.4 | 0.00 | 0.00 | 0.00 | 76 | 1010.9 |
| 20260507064205 | 47 | 148 | 4.3 | 10.4 | 0.00 | 0.00 | 0.00 | 76 | 1010.9 |
| 20260507064003 | 47 | 148 | 4.3 | 10.4 | 0.00 | 0.00 | 0.00 | 77 | 1011.0 |
| 20260507063803 | 47 | 149 | 4.3 | 10.4 | 0.00 | 0.00 | 0.00 | 77 | 1010.9 |
| 20260507063603 | 46 | 147 | 4.3 | 10.4 | 0.00 | 0.00 | 0.00 | 78 | 1011.0 |
| 20260507063404 | 46 | 147 | 4.3 | 10.4 | 0.00 | 0.00 | 0.00 | 78 | 1011.0 |
| 20260507063204 | 46 | 148 | 4.3 | 10.4 | 0.00 | 0.00 | 0.00 | 78 | 1011.0 |
| 20260507063004 | 46 | 148 | 3.5 | 8.7 | 0.00 | 0.00 | 0.00 | 78 | 1011.0 |
| 20260507062803 | 46 | 147 | 4.3 | 9.6 | 0.00 | 0.00 | 0.00 | 78 | 1011.0 |
| 20260507062603 | 46 | 148 | 4.3 | 9.6 | 0.00 | 0.00 | 0.00 | 77 | 1011.0 |
| 20260507062405 | 46 | 148 | 4.3 | 9.6 | 0.00 | 0.00 | 0.00 | 77 | 1011.0 |
| 20260507062204 | 46 | 147 | 4.3 | 9.6 | 0.00 | 0.00 | 0.00 | 77 | 1011.0 |
| 20260507062004 | 46 | 147 | 4.3 | 9.6 | 0.00 | 0.00 | 0.00 | 77 | 1011.0 |
| 20260507061803 | 46 | 152 | 3.5 | 10.4 | 0.00 | 0.00 | 0.00 | 77 | 1011.0 |
| 20260507061603 | 46 | 151 | 4.3 | 10.4 | 0.00 | 0.00 | 0.00 | 77 | 1011.1 |
| 20260507061405 | 46 | 151 | 4.3 | 10.4 | 0.00 | 0.00 | 0.00 | 77 | 1011.0 |
| 20260507061204 | 46 | 152 | 4.3 | 10.4 | 0.00 | 0.00 | 0.00 | 78 | 1011.0 |
| 20260507061004 | 46 | 154 | 4.3 | 10.4 | 0.00 | 0.00 | 0.00 | 78 | 1011.0 |
| 20260507060803 | 46 | 151 | 3.5 | 9.6 | 0.00 | 0.00 | 0.00 | 78 | 1011.1 |
| 20260507060604 | 46 | 157 | 3.5 | 9.6 | 0.00 | 0.00 | 0.00 | 79 | 1011.0 |
| 20260507060404 | 45 | 162 | 3.5 | 8.7 | 0.00 | 0.00 | 0.00 | 79 | 1011.1 |
| 20260507060203 | 45 | 166 | 3.5 | 8.7 | 0.00 | 0.00 | 0.00 | 79 | 1011.0 |
| 20260507060003 | 45 | 168 | 3.5 | 8.7 | 0.00 | 0.00 | 0.00 | 80 | 1011.1 |
| 20260507055804 | 45 | 167 | 3.5 | 8.7 | 0.00 | 0.00 | 0.00 | 80 | 1011.1 |
| 20260507055603 | 45 | 169 | 3.5 | 8.7 | 0.00 | 0.00 | 0.00 | 80 | 1011.1 |
| 20260507055404 | 44 | 170 | 3.5 | 8.7 | 0.00 | 0.00 | 0.00 | 80 | 1011.1 |
| 20260507055203 | 44 | 167 | 3.5 | 8.7 | 0.00 | 0.00 | 0.00 | 80 | 1011.1 |
| 20260507055003 | 44 | 163 | 4.3 | 9.6 | 0.00 | 0.00 | 0.00 | 81 | 1011.1 |
| 20260507054803 | 44 | 166 | 3.5 | 9.6 | 0.00 | 0.00 | 0.00 | 81 | 1011.1 |
| 20260507054603 | 44 | 162 | 4.3 | 10.4 | 0.00 | 0.00 | 0.00 | 81 | 1011.1 |
| 20260507054404 | 44 | 164 | 4.3 | 10.4 | 0.00 | 0.00 | 0.00 | 81 | 1011.1 |
| 20260507054203 | 44 | 165 | 3.5 | 10.4 | 0.00 | 0.00 | 0.00 | 81 | 1011.0 |
| 20260507054003 | 44 | 166 | 3.5 | 10.4 | 0.00 | 0.00 | 0.00 | 81 | 1011.0 |
| 20260507053803 | 44 | 164 | 3.5 | 10.4 | 0.00 | 0.00 | 0.00 | 82 | 1011.0 |
| 20260507053603 | 43 | 162 | 3.5 | 10.4 | 0.00 | 0.00 | 0.00 | 82 | 1011.0 |
| 20260507053403 | 43 | 154 | 4.3 | 10.4 | 0.00 | 0.00 | 0.00 | 82 | 1011.0 |
| 20260507053203 | 43 | 153 | 4.3 | 10.4 | 0.00 | 0.00 | 0.00 | 83 | 1011.0 |
| 20260507053003 | 43 | 153 | 4.3 | 10.4 | 0.00 | 0.00 | 0.00 | 83 | 1011.1 |
| 20260507052803 | 43 | 151 | 4.3 | 10.4 | 0.00 | 0.00 | 0.00 | 83 | 1011.0 |
| 20260507052603 | 42 | 148 | 4.3 | 10.4 | 0.00 | 0.00 | 0.00 | 84 | 1011.0 |
| 20260507052403 | 42 | 147 | 3.5 | 7.0 | 0.00 | 0.00 | 0.00 | 84 | 1011.1 |
| 20260507052204 | 42 | 148 | 3.5 | 7.0 | 0.00 | 0.00 | 0.00 | 84 | 1011.1 |
| 20260507052004 | 42 | 145 | 3.5 | 7.0 | 0.00 | 0.00 | 0.00 | 84 | 1011.1 |
| 20260507051804 | 42 | 147 | 3.5 | 7.0 | 0.00 | 0.00 | 0.00 | 84 | 1011.1 |
| 20260507051603 | 41 | 154 | 3.5 | 7.0 | 0.00 | 0.00 | 0.00 | 84 | 1011.1 |
| 20260507051403 | 41 | 157 | 3.5 | 7.0 | 0.00 | 0.00 | 0.00 | 85 | 1011.1 |
| 20260507051203 | 41 | 155 | 3.5 | 7.0 | 0.00 | 0.00 | 0.00 | 84 | 1011.1 |
| 20260507051003 | 41 | 157 | 3.5 | 6.1 | 0.00 | 0.00 | 0.00 | 84 | 1011.1 |
| 20260507050805 | 41 | 156 | 2.6 | 6.1 | 0.00 | 0.00 | 0.00 | 84 | 1011.2 |
| 20260507050603 | 41 | 150 | 2.6 | 6.1 | 0.00 | 0.00 | 0.00 | 84 | 1011.2 |
| 20260507050403 | 41 | 147 | 2.6 | 5.2 | 0.00 | 0.00 | 0.00 | 84 | 1011.2 |
| 20260507050203 | 40 | 147 | 2.6 | 5.2 | 0.00 | 0.00 | 0.00 | 84 | 1011.2 |
| 20260507050005 | 40 | 147 | 2.6 | 5.2 | 0.00 | 0.00 | 0.00 | 84 | 1011.2 |
| 20260507045804 | 40 | 148 | 2.6 | 5.2 | 0.00 | 0.00 | 0.00 | 84 | 1011.2 |
| 20260507045603 | 40 | 150 | 2.6 | 5.2 | 0.00 | 0.00 | 0.00 | 84 | 1011.3 |
| 20260507045403 | 40 | 154 | 2.6 | 6.1 | 0.00 | 0.00 | 0.00 | 84 | 1011.2 |
| 20260507045203 | 40 | 158 | 2.6 | 6.1 | 0.00 | 0.00 | 0.00 | 84 | 1011.3 |
| 20260507045004 | 40 | 161 | 2.6 | 6.1 | 0.00 | 0.00 | 0.00 | 84 | 1011.3 |
| 20260507044803 | 40 | 162 | 2.6 | 6.1 | 0.00 | 0.00 | 0.00 | 84 | 1011.3 |
| 20260507044604 | 40 | 163 | 2.6 | 6.1 | 0.00 | 0.00 | 0.00 | 84 | 1011.3 |
| 20260507044403 | 40 | 166 | 2.6 | 6.1 | 0.00 | 0.00 | 0.00 | 84 | 1011.3 |
| 20260507044203 | 40 | 166 | 2.6 | 6.1 | 0.00 | 0.00 | 0.00 | 84 | 1011.3 |
| 20260507044004 | 40 | 168 | 2.6 | 6.1 | 0.00 | 0.00 | 0.00 | 84 | 1011.3 |
| 20260507043804 | 40 | 167 | 2.6 | 6.1 | 0.00 | 0.00 | 0.00 | 84 | 1011.3 |
| 20260507043603 | 40 | 166 | 1.7 | 6.1 | 0.00 | 0.00 | 0.00 | 84 | 1011.3 |
| 20260507043403 | 40 | 160 | 2.6 | 6.1 | 0.00 | 0.00 | 0.00 | 84 | 1011.3 |
| 20260507043203 | 40 | 155 | 2.6 | 7.0 | 0.00 | 0.00 | 0.00 | 84 | 1011.3 |
| 20260507043004 | 40 | 151 | 2.6 | 7.0 | 0.00 | 0.00 | 0.00 | 84 | 1011.3 |
| 20260507042805 | 40 | 150 | 2.6 | 7.0 | 0.00 | 0.00 | 0.00 | 83 | 1011.3 |
| 20260507042603 | 40 | 150 | 3.5 | 7.0 | 0.00 | 0.00 | 0.00 | 83 | 1011.3 |
| 20260507042403 | 40 | 150 | 3.5 | 7.0 | 0.00 | 0.00 | 0.00 | 83 | 1011.3 |
| 20260507042203 | 40 | 150 | 2.6 | 6.1 | 0.00 | 0.00 | 0.00 | 83 | 1011.3 |
| 20260507042004 | 40 | 149 | 2.6 | 5.2 | 0.00 | 0.00 | 0.00 | 83 | 1011.4 |
| 20260507041804 | 40 | 149 | 1.7 | 4.3 | 0.00 | 0.00 | 0.00 | 82 | 1011.3 |
| 20260507041604 | 40 | 149 | 1.7 | 4.3 | 0.00 | 0.00 | 0.00 | 82 | 1011.4 |
| 20260507041404 | 40 | 148 | 1.7 | 4.3 | 0.00 | 0.00 | 0.00 | 82 | 1011.4 |
| 20260507041203 | 40 | 148 | 1.7 | 4.3 | 0.00 | 0.00 | 0.00 | 82 | 1011.5 |
| 20260507041004 | 40 | 148 | 1.7 | 4.3 | 0.00 | 0.00 | 0.00 | 82 | 1011.5 |
| 20260507040803 | 40 | 148 | 2.6 | 5.2 | 0.00 | 0.00 | 0.00 | 82 | 1011.5 |
| 20260507040603 | 40 | 147 | 2.6 | 5.2 | 0.00 | 0.00 | 0.00 | 82 | 1011.5 |
| 20260507040405 | 40 | 147 | 2.6 | 5.2 | 0.00 | 0.00 | 0.00 | 82 | 1011.4 |
| 20260507040204 | 40 | 147 | 2.6 | 5.2 | 0.00 | 0.00 | 0.00 | 82 | 1011.4 |
| 20260507040003 | 40 | 147 | 2.6 | 6.1 | 0.00 | 0.00 | 0.00 | 82 | 1011.4 |
| 20260507035804 | 40 | 147 | 2.6 | 6.1 | 0.00 | 0.00 | 0.00 | 82 | 1011.4 |
| 20260507035603 | 41 | 148 | 2.6 | 6.1 | 0.00 | 0.00 | 0.00 | 82 | 1011.5 |
| 20260507035403 | 41 | 148 | 3.5 | 6.1 | 0.00 | 0.00 | 0.00 | 82 | 1011.6 |
| 20260507035204 | 41 | 148 | 3.5 | 5.2 | 0.00 | 0.00 | 0.00 | 82 | 1011.6 |
| 20260507035003 | 41 | 148 | 2.6 | 5.2 | 0.00 | 0.00 | 0.00 | 82 | 1011.6 |
| 20260507034804 | 41 | 148 | 2.6 | 5.2 | 0.00 | 0.00 | 0.00 | 82 | 1011.6 |
| 20260507034603 | 41 | 148 | 2.6 | 5.2 | 0.00 | 0.00 | 0.00 | 82 | 1011.7 |
| 20260507034404 | 41 | 148 | 2.6 | 5.2 | 0.00 | 0.00 | 0.00 | 82 | 1011.7 |
| 20260507034203 | 41 | 147 | 2.6 | 5.2 | 0.00 | 0.00 | 0.00 | 82 | 1011.8 |
| 20260507034004 | 41 | 146 | 2.6 | 5.2 | 0.00 | 0.00 | 0.00 | 82 | 1011.7 |
| 20260507033803 | 41 | 145 | 2.6 | 5.2 | 0.00 | 0.00 | 0.00 | 82 | 1011.8 |
| 20260507033603 | 41 | 146 | 3.5 | 5.2 | 0.00 | 0.00 | 0.00 | 82 | 1011.7 |
| 20260507033403 | 41 | 146 | 3.5 | 5.2 | 0.00 | 0.00 | 0.00 | 82 | 1011.8 |
| 20260507033204 | 41 | 147 | 3.5 | 8.7 | 0.00 | 0.00 | 0.00 | 82 | 1011.8 |
| 20260507033003 | 41 | 147 | 3.5 | 8.7 | 0.00 | 0.00 | 0.00 | 82 | 1011.9 |
| 20260507032805 | 42 | 147 | 3.5 | 8.7 | 0.00 | 0.00 | 0.00 | 82 | 1011.9 |
| 20260507032603 | 42 | 147 | 3.5 | 8.7 | 0.00 | 0.00 | 0.00 | 82 | 1011.9 |
| 20260507032404 | 42 | 149 | 2.6 | 8.7 | 0.00 | 0.00 | 0.00 | 81 | 1011.9 |
| 20260507032203 | 42 | 152 | 2.6 | 6.1 | 0.00 | 0.00 | 0.00 | 81 | 1011.9 |
| 20260507032003 | 42 | 154 | 2.6 | 8.7 | 0.00 | 0.00 | 0.00 | 81 | 1011.9 |
| 20260507031804 | 42 | 158 | 2.6 | 8.7 | 0.00 | 0.00 | 0.00 | 81 | 1011.9 |
| 20260507031603 | 42 | 161 | 2.6 | 8.7 | 0.00 | 0.00 | 0.00 | 81 | 1011.9 |
| 20260507031404 | 42 | 158 | 2.6 | 9.6 | 0.00 | 0.00 | 0.00 | 81 | 1011.8 |
| 20260507031204 | 42 | 154 | 3.5 | 9.6 | 0.00 | 0.00 | 0.00 | 81 | 1011.8 |
| 20260507031003 | 42 | 153 | 2.6 | 9.6 | 0.00 | 0.00 | 0.00 | 81 | 1011.9 |
| 20260507030803 | 42 | 150 | 2.6 | 9.6 | 0.00 | 0.00 | 0.00 | 81 | 1011.9 |
| 20260507030603 | 42 | 146 | 2.6 | 9.6 | 0.00 | 0.00 | 0.00 | 81 | 1011.9 |
| 20260507030404 | 42 | 145 | 3.5 | 8.7 | 0.00 | 0.00 | 0.00 | 81 | 1011.9 |
| 20260507030204 | 42 | 145 | 2.6 | 8.7 | 0.00 | 0.00 | 0.00 | 80 | 1011.9 |
| 20260507030003 | 42 | 144 | 3.5 | 8.7 | 0.00 | 0.00 | 0.00 | 80 | 1011.8 |
| 20260507025803 | 42 | 144 | 3.5 | 8.7 | 0.00 | 0.00 | 0.00 | 80 | 1011.9 |
| 20260507025603 | 42 | 143 | 3.5 | 8.7 | 0.00 | 0.00 | 0.00 | 80 | 1011.9 |
| 20260507025403 | 42 | 143 | 2.6 | 5.2 | 0.00 | 0.00 | 0.00 | 80 | 1012.0 |
| 20260507025203 | 42 | 142 | 2.6 | 7.0 | 0.00 | 0.00 | 0.00 | 80 | 1011.9 |
| 20260507025004 | 42 | 143 | 2.6 | 7.0 | 0.00 | 0.00 | 0.00 | 80 | 1012.0 |
| 20260507024803 | 42 | 143 | 3.5 | 9.6 | 0.00 | 0.00 | 0.00 | 80 | 1011.9 |
| 20260507024603 | 42 | 143 | 3.5 | 9.6 | 0.00 | 0.00 | 0.00 | 80 | 1012.0 |
| 20260507024404 | 42 | 143 | 3.5 | 9.6 | 0.00 | 0.00 | 0.00 | 80 | 1012.0 |
| 20260507024203 | 42 | 145 | 3.5 | 9.6 | 0.00 | 0.00 | 0.00 | 80 | 1011.9 |
| 20260507024004 | 43 | 146 | 4.3 | 10.4 | 0.00 | 0.00 | 0.00 | 80 | 1011.9 |
| 20260507023803 | 43 | 147 | 4.3 | 10.4 | 0.00 | 0.00 | 0.00 | 80 | 1011.9 |
| 20260507023605 | 43 | 148 | 4.3 | 11.3 | 0.00 | 0.00 | 0.00 | 80 | 1011.9 |
| 20260507023403 | 43 | 150 | 5.2 | 11.3 | 0.00 | 0.00 | 0.00 | 80 | 1011.9 |
| 20260507023203 | 42 | 152 | 4.3 | 11.3 | 0.00 | 0.00 | 0.00 | 80 | 1011.9 |
| 20260507023004 | 42 | 153 | 4.3 | 11.3 | 0.00 | 0.00 | 0.00 | 80 | 1011.9 |
| 20260507022804 | 43 | 156 | 4.3 | 11.3 | 0.00 | 0.00 | 0.00 | 80 | 1011.9 |
| 20260507022603 | 43 | 156 | 4.3 | 10.4 | 0.00 | 0.00 | 0.00 | 80 | 1011.9 |
| 20260507022403 | 43 | 155 | 4.3 | 8.7 | 0.00 | 0.00 | 0.00 | 80 | 1011.9 |
| 20260507022203 | 43 | 152 | 4.3 | 9.6 | 0.00 | 0.00 | 0.00 | 80 | 1011.9 |
| 20260507022004 | 43 | 151 | 4.3 | 9.6 | 0.00 | 0.00 | 0.00 | 80 | 1012.0 |
| 20260507021803 | 43 | 148 | 4.3 | 9.6 | 0.00 | 0.00 | 0.00 | 80 | 1011.9 |
| 20260507021603 | 43 | 147 | 4.3 | 9.6 | 0.00 | 0.00 | 0.00 | 80 | 1011.9 |
| 20260507021404 | 43 | 148 | 5.2 | 9.6 | 0.00 | 0.00 | 0.00 | 80 | 1011.9 |
| 20260507021205 | 43 | 150 | 4.3 | 9.6 | 0.00 | 0.00 | 0.00 | 80 | 1011.9 |
| 20260507021003 | 43 | 152 | 4.3 | 9.6 | 0.00 | 0.00 | 0.00 | 80 | 1011.9 |
| 20260507020803 | 43 | 154 | 3.5 | 9.6 | 0.00 | 0.00 | 0.00 | 80 | 1012.0 |
| 20260507020603 | 43 | 160 | 3.5 | 9.6 | 0.00 | 0.00 | 0.00 | 80 | 1012.0 |
| 20260507020403 | 43 | 168 | 2.6 | 7.0 | 0.00 | 0.00 | 0.00 | 80 | 1012.1 |
| 20260507020204 | 43 | 172 | 2.6 | 5.2 | 0.00 | 0.00 | 0.00 | 80 | 1012.2 |
| 20260507020003 | 43 | 176 | 2.6 | 5.2 | 0.00 | 0.00 | 0.00 | 80 | 1012.1 |
| 20260507015804 | 43 | 181 | 2.6 | 5.2 | 0.00 | 0.00 | 0.00 | 80 | 1012.1 |
| 20260507015603 | 43 | 177 | 2.6 | 5.2 | 0.00 | 0.00 | 0.00 | 80 | 1012.1 |
| 20260507015403 | 43 | 169 | 2.6 | 5.2 | 0.00 | 0.00 | 0.00 | 80 | 1012.1 |
| 20260507015203 | 43 | 164 | 2.6 | 6.1 | 0.00 | 0.00 | 0.00 | 80 | 1012.1 |
| 20260507015003 | 43 | 164 | 3.5 | 7.0 | 0.00 | 0.00 | 0.00 | 80 | 1012.1 |
| 20260507014803 | 43 | 160 | 3.5 | 11.3 | 0.00 | 0.00 | 0.00 | 80 | 1012.1 |
| 20260507014604 | 43 | 158 | 3.5 | 11.3 | 0.00 | 0.00 | 0.00 | 80 | 1012.1 |
| 20260507014403 | 43 | 164 | 3.5 | 11.3 | 0.00 | 0.00 | 0.00 | 81 | 1012.1 |
| 20260507014204 | 43 | 168 | 3.5 | 11.3 | 0.00 | 0.00 | 0.00 | 81 | 1012.1 |